Wetterdaten: Dienstag, 16.01.2018
Datum Zeit Temp. Aussen Temp. o. S. +5cm Feuchte Auss BlattFeu 1 Luftdruck Regen Sonnenschein Regendauer Solar Windben Empfang
16.01.2018 00:00 6,4 C 5,6 C 4,4 C 95 % 15 lf 991,6 hPa 0,0 l/m 0 min 0 min 0 W/m 15,8 km/h (3 Bft) 95,74 %
16.01.2018 00:02 6,4 C 5,6 C 4,4 C 95 % 15 lf 991,7 hPa 0,0 l/m 0 min 0 min 0 W/m 18,0 km/h (3 Bft) 97,22 %
16.01.2018 00:04 6,4 C 5,6 C 4,4 C 95 % 15 lf 991,6 hPa 0,0 l/m 0 min 0 min 0 W/m 11,3 km/h (2 Bft) 97,87 %
16.01.2018 00:08 6,5 C 6,1 C 4,4 C 95 % 15 lf 991,8 hPa 0,0 l/m 0 min 0 min 0 W/m 27,0 km/h (4 Bft) 96,77 %
16.01.2018 00:10 6,5 C 6,1 C 5,0 C 95 % 15 lf 992,0 hPa 0,0 l/m 0 min 0 min 0 W/m 29,3 km/h (5 Bft) 97,87 %
16.01.2018 00:12 6,5 C 6,1 C 5,0 C 95 % 15 lf 992,0 hPa 0,0 l/m 0 min 0 min 0 W/m 27,0 km/h (4 Bft) 97,87 %
16.01.2018 00:14 6,6 C 6,1 C 5,0 C 95 % 15 lf 992,2 hPa 0,0 l/m 0 min 0 min 0 W/m 38,3 km/h (5 Bft) 97,87 %
16.01.2018 00:16 6,6 C 6,1 C 5,0 C 96 % 15 lf 992,1 hPa 0,0 l/m 0 min 0 min 0 W/m 38,3 km/h (5 Bft) 100,00 %
16.01.2018 00:18 6,6 C 6,1 C 5,0 C 96 % 15 lf 992,2 hPa 0,0 l/m 0 min 0 min 0 W/m 33,8 km/h (5 Bft) 100,00 %
16.01.2018 00:20 6,6 C 6,1 C 5,0 C 96 % 15 lf 992,3 hPa 0,0 l/m 0 min 0 min 0 W/m 38,3 km/h (5 Bft) 100,00 %
16.01.2018 00:22 6,6 C 6,1 C 5,0 C 96 % 15 lf 992,2 hPa 0,0 l/m 0 min 0 min 0 W/m 38,3 km/h (5 Bft) 97,14 %
16.01.2018 00:24 6,5 C 6,1 C 4,4 C 96 % 15 lf 992,2 hPa 0,0 l/m 0 min 0 min 0 W/m 29,3 km/h (5 Bft) 97,87 %
16.01.2018 00:26 6,5 C 6,1 C 4,4 C 96 % 15 lf 992,4 hPa 0,0 l/m 0 min 0 min 0 W/m 31,5 km/h (5 Bft) 100,00 %
16.01.2018 00:28 6,5 C 6,1 C 4,4 C 96 % 15 lf 992,5 hPa 0,0 l/m 0 min 0 min 0 W/m 24,8 km/h (4 Bft) 100,00 %
16.01.2018 00:30 6,4 C 5,6 C 4,4 C 96 % 15 lf 992,6 hPa 0,0 l/m 0 min 0 min 0 W/m 36,0 km/h (5 Bft) 100,00 %
16.01.2018 00:32 6,4 C 5,6 C 4,4 C 96 % 15 lf 992,6 hPa 0,0 l/m 0 min 2 min 0 W/m 36,0 km/h (5 Bft) 95,74 %
16.01.2018 00:34 6,4 C 5,6 C 4,4 C 96 % 15 lf 992,6 hPa 0,0 l/m 0 min 0 min 0 W/m 24,8 km/h (4 Bft) 100,00 %
16.01.2018 00:36 6,4 C 5,6 C 4,4 C 96 % 15 lf 992,6 hPa 0,0 l/m 0 min 0 min 0 W/m 31,5 km/h (5 Bft) 95,74 %
16.01.2018 00:38 6,4 C 5,6 C 4,4 C 96 % 15 lf 992,5 hPa 0,0 l/m 0 min 0 min 0 W/m 42,8 km/h (6 Bft) 100,00 %
16.01.2018 00:40 6,4 C 5,6 C 4,4 C 96 % 15 lf 992,6 hPa 0,0 l/m 0 min 0 min 0 W/m 31,5 km/h (5 Bft) 100,00 %
16.01.2018 00:42 6,3 C 5,6 C 4,4 C 96 % 15 lf 992,7 hPa 0,0 l/m 0 min 0 min 0 W/m 27,0 km/h (4 Bft) 97,87 %
16.01.2018 00:44 6,3 C 5,6 C 4,4 C 95 % 15 lf 992,7 hPa 0,0 l/m 0 min 0 min 0 W/m 33,8 km/h (5 Bft) 100,00 %
16.01.2018 00:46 6,3 C 5,6 C 4,4 C 95 % 15 lf 992,7 hPa 0,0 l/m 0 min 0 min 0 W/m 24,8 km/h (4 Bft) 100,00 %
16.01.2018 00:48 6,3 C 5,6 C 4,4 C 95 % 15 lf 992,7 hPa 0,0 l/m 0 min 0 min 0 W/m 29,3 km/h (5 Bft) 100,00 %
16.01.2018 00:50 6,2 C 5,6 C 4,4 C 95 % 15 lf 992,8 hPa 0,0 l/m 0 min 0 min 0 W/m 27,0 km/h (4 Bft) 95,83 %
16.01.2018 00:52 6,2 C 5,6 C 4,4 C 95 % 15 lf 992,9 hPa 0,0 l/m 0 min 0 min 0 W/m 33,8 km/h (5 Bft) 95,65 %
16.01.2018 00:54 6,2 C 5,6 C 4,4 C 95 % 15 lf 992,9 hPa 0,0 l/m 0 min 0 min 0 W/m 24,8 km/h (4 Bft) 97,14 %
16.01.2018 00:56 6,2 C 5,6 C 4,4 C 95 % 15 lf 992,9 hPa 0,0 l/m 0 min 0 min 0 W/m 29,3 km/h (5 Bft) 96,49 %
16.01.2018 00:58 6,2 C 5,6 C 4,4 C 95 % 15 lf 992,8 hPa 0,0 l/m 0 min 0 min 0 W/m 31,5 km/h (5 Bft) 95,74 %
16.01.2018 01:00 6,1 C 5,6 C 4,4 C 95 % 15 lf 992,9 hPa 0,0 l/m 0 min 0 min 0 W/m 36,0 km/h (5 Bft) 89,36 %
16.01.2018 01:02 6,1 C 5,6 C 4,4 C 95 % 15 lf 992,8 hPa 0,0 l/m 0 min 0 min 0 W/m 27,0 km/h (4 Bft) 93,62 %
16.01.2018 01:04 6,1 C 5,6 C 4,4 C 95 % 15 lf 992,9 hPa 0,0 l/m 0 min 0 min 0 W/m 31,5 km/h (5 Bft) 95,65 %
16.01.2018 01:06 6,1 C 5,6 C 4,4 C 95 % 15 lf 992,9 hPa 0,0 l/m 0 min 0 min 0 W/m 22,5 km/h (4 Bft) 95,74 %
16.01.2018 01:08 6,1 C 5,6 C 4,4 C 95 % 15 lf 992,9 hPa 0,0 l/m 0 min 0 min 0 W/m 27,0 km/h (4 Bft) 95,74 %
16.01.2018 01:10 6,1 C 5,6 C 4,4 C 95 % 15 lf 992,9 hPa 0,0 l/m 0 min 0 min 0 W/m 24,8 km/h (4 Bft) 93,62 %
16.01.2018 01:12 6,1 C 5,6 C 4,4 C 95 % 15 lf 993,0 hPa 0,0 l/m 0 min 0 min 0 W/m 38,3 km/h (5 Bft) 95,74 %
16.01.2018 01:14 6,1 C 5,6 C 4,4 C 95 % 15 lf 993,0 hPa 0,0 l/m 0 min 0 min 0 W/m 31,5 km/h (5 Bft) 95,74 %
16.01.2018 01:16 6,1 C 5,6 C 4,4 C 95 % 15 lf 993,0 hPa 0,0 l/m 0 min 0 min 0 W/m 20,3 km/h (4 Bft) 93,48 %
16.01.2018 01:18 6,1 C 5,6 C 4,4 C 95 % 15 lf 993,2 hPa 0,0 l/m 0 min 0 min 0 W/m 24,8 km/h (4 Bft) 91,49 %
16.01.2018 01:20 6,1 C 5,6 C 4,4 C 95 % 15 lf 993,3 hPa 0,0 l/m 0 min 0 min 0 W/m 31,5 km/h (5 Bft) 95,74 %
16.01.2018 01:22 6,1 C 5,6 C 4,4 C 95 % 15 lf 993,3 hPa 0,0 l/m 0 min 0 min 0 W/m 31,5 km/h (5 Bft) 93,62 %
16.01.2018 01:24 6,1 C 5,6 C 4,4 C 94 % 15 lf 993,4 hPa 0,0 l/m 0 min 0 min 0 W/m 33,8 km/h (5 Bft) 93,62 %
16.01.2018 01:26 6,1 C 5,6 C 4,4 C 94 % 15 lf 993,2 hPa 0,0 l/m 0 min 2 min 0 W/m 36,0 km/h (5 Bft) 95,65 %
16.01.2018 01:28 6,1 C 5,6 C 4,4 C 94 % 15 lf 993,2 hPa 0,0 l/m 0 min 2 min 0 W/m 42,8 km/h (6 Bft) 89,36 %
16.01.2018 01:30 6,1 C 5,6 C 4,4 C 94 % 15 lf 993,3 hPa 0,0 l/m 0 min 2 min 0 W/m 36,0 km/h (5 Bft) 93,62 %
16.01.2018 01:32 6,1 C 5,6 C 4,4 C 94 % 15 lf 993,2 hPa 0,0 l/m 0 min 0 min 0 W/m 38,3 km/h (5 Bft) 93,62 %
16.01.2018 01:34 6,1 C 5,6 C 3,9 C 94 % 15 lf 993,3 hPa 0,0 l/m 0 min 0 min 0 W/m 40,6 km/h (6 Bft) 89,36 %
16.01.2018 01:36 6,1 C 5,6 C 3,9 C 94 % 15 lf 993,3 hPa 0,0 l/m 0 min 0 min 0 W/m 29,3 km/h (5 Bft) 89,36 %
16.01.2018 01:38 6,1 C 5,6 C 3,9 C 94 % 15 lf 993,3 hPa 0,0 l/m 0 min 0 min 0 W/m 38,3 km/h (5 Bft) 93,48 %
16.01.2018 01:40 6,1 C 5,6 C 3,9 C 94 % 15 lf 993,2 hPa 0,0 l/m 0 min 2 min 0 W/m 49,6 km/h (6 Bft) 89,36 %
16.01.2018 01:42 6,1 C 5,6 C 3,9 C 94 % 15 lf 993,4 hPa 0,0 l/m 0 min 2 min 0 W/m 29,3 km/h (5 Bft) 91,49 %
16.01.2018 01:44 6,1 C 5,6 C 3,9 C 93 % 15 lf 993,3 hPa 0,0 l/m 0 min 2 min 0 W/m 51,8 km/h (7 Bft) 87,23 %
16.01.2018 01:46 6,1 C 5,6 C 3,9 C 93 % 15 lf 993,1 hPa 0,0 l/m 0 min 0 min 0 W/m 27,0 km/h (4 Bft) 93,62 %
16.01.2018 01:48 6,1 C 5,6 C 3,9 C 93 % 15 lf 993,2 hPa 0,0 l/m 0 min 0 min 0 W/m 38,3 km/h (5 Bft) 91,49 %
16.01.2018 01:50 6,1 C 5,6 C 3,9 C 93 % 15 lf 993,2 hPa 0,0 l/m 0 min 0 min 0 W/m 31,5 km/h (5 Bft) 95,65 %
16.01.2018 01:52 6,1 C 5,0 C 3,9 C 93 % 15 lf 993,2 hPa 0,0 l/m 0 min 0 min 0 W/m 29,3 km/h (5 Bft) 93,62 %
16.01.2018 01:54 6,0 C 5,0 C 3,9 C 93 % 15 lf 993,3 hPa 0,0 l/m 0 min 0 min 0 W/m 38,3 km/h (5 Bft) 93,62 %
16.01.2018 01:56 6,0 C 5,0 C 3,9 C 93 % 15 lf 993,3 hPa 0,0 l/m 0 min 2 min 0 W/m 40,6 km/h (6 Bft) 95,74 %
16.01.2018 01:58 6,0 C 5,0 C 3,9 C 93 % 15 lf 993,1 hPa 0,0 l/m 0 min 0 min 0 W/m 36,0 km/h (5 Bft) 94,74 %
16.01.2018 02:00 6,0 C 5,0 C 3,9 C 93 % 15 lf 993,1 hPa 0,0 l/m 0 min 0 min 0 W/m 29,3 km/h (5 Bft) 95,74 %
16.01.2018 02:02 6,0 C 5,0 C 3,9 C 93 % 15 lf 993,2 hPa 0,0 l/m 0 min 0 min 0 W/m 29,3 km/h (5 Bft) 95,74 %
16.01.2018 02:04 6,0 C 5,6 C 3,9 C 93 % 15 lf 993,3 hPa 0,0 l/m 0 min 0 min 0 W/m 40,6 km/h (6 Bft) 95,65 %
16.01.2018 02:06 6,0 C 5,6 C 3,9 C 93 % 15 lf 993,1 hPa 0,0 l/m 0 min 0 min 0 W/m 36,0 km/h (5 Bft) 93,62 %
16.01.2018 02:08 6,0 C 5,6 C 3,9 C 93 % 14 lf 993,2 hPa 0,0 l/m 0 min 0 min 0 W/m 36,0 km/h (5 Bft) 97,87 %
16.01.2018 02:10 6,0 C 5,6 C 3,9 C 93 % 13 lf 993,1 hPa 0,0 l/m 0 min 0 min 0 W/m 31,5 km/h (5 Bft) 100,00 %
16.01.2018 02:12 6,1 C 5,6 C 3,9 C 93 % 13 lf 993,2 hPa 0,0 l/m 0 min 0 min 0 W/m 24,8 km/h (4 Bft) 97,87 %
16.01.2018 02:14 6,1 C 5,6 C 3,9 C 93 % 11 lf 993,2 hPa 0,0 l/m 0 min 0 min 0 W/m 38,3 km/h (5 Bft) 100,00 %
16.01.2018 02:16 6,1 C 5,6 C 3,9 C 93 % 10 lf 993,0 hPa 0,0 l/m 0 min 0 min 0 W/m 33,8 km/h (5 Bft) 100,00 %
16.01.2018 02:18 6,1 C 5,6 C 3,9 C 93 % 10 lf 993,1 hPa 0,0 l/m 0 min 0 min 0 W/m 33,8 km/h (5 Bft) 100,00 %
16.01.2018 02:20 6,1 C 5,6 C 3,9 C 93 % 9 lf 992,9 hPa 0,0 l/m 0 min 0 min 0 W/m 31,5 km/h (5 Bft) 100,00 %
16.01.2018 02:22 6,1 C 5,6 C 3,9 C 93 % 8 lf 993,0 hPa 0,0 l/m 0 min 0 min 0 W/m 31,5 km/h (5 Bft) 97,14 %
16.01.2018 02:24 6,1 C 5,6 C 4,4 C 93 % 5 lf 992,9 hPa 0,0 l/m 0 min 0 min 0 W/m 38,3 km/h (5 Bft) 97,87 %
16.01.2018 02:26 6,1 C 5,6 C 4,4 C 93 % 4 lf 992,9 hPa 0,0 l/m 0 min 0 min 0 W/m 36,0 km/h (5 Bft) 100,00 %
16.01.2018 02:28 6,1 C 5,6 C 4,4 C 93 % 3 lf 992,9 hPa 0,0 l/m 0 min 0 min 0 W/m 40,6 km/h (6 Bft) 100,00 %
16.01.2018 02:30 6,1 C 5,6 C 4,4 C 93 % 2 lf 992,9 hPa 0,0 l/m 0 min 0 min 0 W/m 33,8 km/h (5 Bft) 100,00 %
16.01.2018 02:32 6,2 C 5,6 C 4,4 C 93 % 2 lf 992,9 hPa 0,0 l/m 0 min 0 min 0 W/m 33,8 km/h (5 Bft) 100,00 %
16.01.2018 02:34 6,2 C 5,6 C 4,4 C 93 % 1 lf 992,7 hPa 0,0 l/m 0 min 0 min 0 W/m 38,3 km/h (5 Bft) 97,87 %
16.01.2018 02:36 6,2 C 5,6 C 4,4 C 93 % 0 lf 992,5 hPa 0,0 l/m 0 min 0 min 0 W/m 40,6 km/h (6 Bft) 100,00 %
16.01.2018 02:38 6,2 C 5,6 C 4,4 C 93 % 0 lf 992,5 hPa 0,0 l/m 0 min 0 min 0 W/m 29,3 km/h (5 Bft) 100,00 %
16.01.2018 02:40 6,2 C 5,6 C 3,9 C 93 % 0 lf 992,5 hPa 0,0 l/m 0 min 0 min 0 W/m 31,5 km/h (5 Bft) 97,83 %
16.01.2018 02:42 6,2 C 5,6 C 3,9 C 93 % 0 lf 992,5 hPa 0,0 l/m 0 min 0 min 0 W/m 27,0 km/h (4 Bft) 100,00 %
16.01.2018 02:44 6,2 C 5,6 C 3,9 C 93 % 0 lf 992,5 hPa 0,0 l/m 0 min 0 min 0 W/m 24,8 km/h (4 Bft) 100,00 %
16.01.2018 02:46 6,2 C 5,6 C 3,9 C 93 % 0 lf 992,5 hPa 0,0 l/m 0 min 0 min 0 W/m 31,5 km/h (5 Bft) 100,00 %
16.01.2018 02:48 6,1 C 5,6 C 3,9 C 93 % 0 lf 992,6 hPa 0,0 l/m 0 min 0 min 0 W/m 29,3 km/h (5 Bft) 97,83 %
16.01.2018 02:50 6,1 C 5,6 C 3,9 C 93 % 0 lf 992,5 hPa 0,0 l/m 0 min 0 min 0 W/m 31,5 km/h (5 Bft) 100,00 %
16.01.2018 02:52 6,1 C 5,6 C 3,9 C 93 % 0 lf 992,4 hPa 0,0 l/m 0 min 0 min 0 W/m 31,5 km/h (5 Bft) 95,74 %
16.01.2018 02:54 6,1 C 5,6 C 3,9 C 93 % 0 lf 992,4 hPa 0,0 l/m 0 min 0 min 0 W/m 27,0 km/h (4 Bft) 97,87 %
16.01.2018 02:56 6,1 C 5,6 C 3,9 C 92 % 0 lf 992,6 hPa 0,0 l/m 0 min 0 min 0 W/m 22,5 km/h (4 Bft) 97,87 %
16.01.2018 02:58 6,1 C 5,6 C 3,9 C 92 % 0 lf 992,5 hPa 0,0 l/m 0 min 0 min 0 W/m 31,5 km/h (5 Bft) 100,00 %
16.01.2018 03:00 6,1 C 6,1 C 3,9 C 92 % 0 lf 992,3 hPa 0,0 l/m 0 min 0 min 0 W/m 31,5 km/h (5 Bft) 100,00 %
16.01.2018 03:02 6,1 C 6,1 C 3,9 C 92 % 0 lf 992,4 hPa 0,0 l/m 0 min 0 min 0 W/m 29,3 km/h (5 Bft) 97,87 %
16.01.2018 03:04 6,1 C 6,1 C 3,9 C 92 % 0 lf 992,5 hPa 0,0 l/m 0 min 0 min 0 W/m 24,8 km/h (4 Bft) 97,87 %
16.01.2018 03:06 6,1 C 6,1 C 3,9 C 92 % 0 lf 992,4 hPa 0,0 l/m 0 min 0 min 0 W/m 27,0 km/h (4 Bft) 100,00 %
16.01.2018 03:08 6,1 C 6,1 C 4,4 C 92 % 0 lf 992,3 hPa 0,0 l/m 0 min 0 min 0 W/m 22,5 km/h (4 Bft) 100,00 %
16.01.2018 03:10 6,1 C 6,1 C 3,9 C 92 % 0 lf 992,2 hPa 0,0 l/m 0 min 0 min 0 W/m 22,5 km/h (4 Bft) 97,87 %
16.01.2018 03:12 6,2 C 6,1 C 3,9 C 92 % 0 lf 992,2 hPa 0,0 l/m 0 min 0 min 0 W/m 27,0 km/h (4 Bft) 100,00 %
16.01.2018 03:14 6,1 C 6,1 C 3,9 C 92 % 0 lf 992,2 hPa 0,0 l/m 0 min 0 min 0 W/m 27,0 km/h (4 Bft) 100,00 %
16.01.2018 03:16 6,1 C 6,1 C 4,4 C 92 % 0 lf 992,2 hPa 0,0 l/m 0 min 0 min 0 W/m 24,8 km/h (4 Bft) 100,00 %
16.01.2018 03:18 6,1 C 6,1 C 4,4 C 92 % 0 lf 992,1 hPa 0,0 l/m 0 min 0 min 0 W/m 24,8 km/h (4 Bft) 100,00 %
16.01.2018 03:20 6,1 C 6,1 C 4,4 C 92 % 0 lf 992,1 hPa 0,0 l/m 0 min 0 min 0 W/m 27,0 km/h (4 Bft) 95,74 %
16.01.2018 03:22 6,2 C 6,1 C 4,4 C 92 % 0 lf 992,1 hPa 0,0 l/m 0 min 0 min 0 W/m 29,3 km/h (5 Bft) 100,00 %
16.01.2018 03:24 6,2 C 6,1 C 4,4 C 92 % 0 lf 992,2 hPa 0,0 l/m 0 min 0 min 0 W/m 18,0 km/h (3 Bft) 100,00 %
16.01.2018 03:26 6,2 C 6,1 C 4,4 C 92 % 0 lf 992,2 hPa 0,0 l/m 0 min 0 min 0 W/m 22,5 km/h (4 Bft) 97,87 %
16.01.2018 03:28 6,2 C 6,1 C 4,4 C 92 % 0 lf 992,1 hPa 0,0 l/m 0 min 0 min 0 W/m 20,3 km/h (4 Bft) 97,87 %
16.01.2018 03:30 6,2 C 6,1 C 4,4 C 92 % 0 lf 992,1 hPa 0,0 l/m 0 min 0 min 0 W/m 27,0 km/h (4 Bft) 95,74 %
16.01.2018 03:32 6,2 C 6,1 C 4,4 C 92 % 0 lf 992,1 hPa 0,0 l/m 0 min 0 min 0 W/m 20,3 km/h (4 Bft) 97,87 %
16.01.2018 03:34 6,2 C 6,1 C 4,4 C 92 % 0 lf 992,0 hPa 0,0 l/m 0 min 0 min 0 W/m 20,3 km/h (4 Bft) 97,87 %
16.01.2018 03:36 6,2 C 6,1 C 3,9 C 92 % 0 lf 992,1 hPa 0,0 l/m 0 min 0 min 0 W/m 20,3 km/h (4 Bft) 97,83 %
16.01.2018 03:38 6,2 C 6,1 C 3,9 C 93 % 0 lf 992,0 hPa 0,0 l/m 0 min 0 min 0 W/m 38,3 km/h (5 Bft) 97,87 %
16.01.2018 03:40 6,2 C 6,1 C 3,9 C 92 % 0 lf 992,0 hPa 0,0 l/m 0 min 0 min 0 W/m 36,0 km/h (5 Bft) 97,87 %
16.01.2018 03:42 6,2 C 6,1 C 3,9 C 92 % 0 lf 992,0 hPa 0,0 l/m 0 min 0 min 0 W/m 33,8 km/h (5 Bft) 95,74 %
16.01.2018 03:44 6,2 C 6,1 C 4,4 C 92 % 0 lf 991,9 hPa 0,0 l/m 0 min 0 min 0 W/m 22,5 km/h (4 Bft) 97,87 %
16.01.2018 03:46 6,2 C 6,1 C 3,9 C 92 % 0 lf 991,9 hPa 0,0 l/m 0 min 0 min 0 W/m 27,0 km/h (4 Bft) 97,83 %
16.01.2018 03:48 6,2 C 6,1 C 4,4 C 92 % 0 lf 992,0 hPa 0,0 l/m 0 min 0 min 0 W/m 29,3 km/h (5 Bft) 97,87 %
16.01.2018 03:50 6,2 C 6,1 C 4,4 C 92 % 0 lf 991,9 hPa 0,0 l/m 0 min 0 min 0 W/m 29,3 km/h (5 Bft) 95,74 %
16.01.2018 03:52 6,2 C 6,1 C 4,4 C 92 % 0 lf 991,9 hPa 0,0 l/m 0 min 0 min 0 W/m 22,5 km/h (4 Bft) 93,62 %
16.01.2018 03:54 6,2 C 6,1 C 4,4 C 92 % 0 lf 991,8 hPa 0,0 l/m 0 min 0 min 0 W/m 24,8 km/h (4 Bft) 95,74 %
16.01.2018 03:56 6,2 C 6,1 C 4,4 C 92 % 0 lf 991,8 hPa 0,0 l/m 0 min 0 min 0 W/m 24,8 km/h (4 Bft) 93,62 %
16.01.2018 03:58 6,2 C 6,1 C 4,4 C 92 % 0 lf 991,9 hPa 0,0 l/m 0 min 0 min 0 W/m 31,5 km/h (5 Bft) 97,83 %
16.01.2018 04:00 6,2 C 6,1 C 4,4 C 92 % 0 lf 991,9 hPa 0,0 l/m 0 min 0 min 0 W/m 24,8 km/h (4 Bft) 95,74 %
16.01.2018 04:05 6,2 C 6,1 C 4,4 C 92 % 0 lf 991,9 hPa 0,0 l/m 0 min 0 min 0 W/m 33,8 km/h (5 Bft) 35,09 %
16.01.2018 04:10 6,3 C 6,1 C 4,4 C 92 % 0 lf 991,9 hPa 0,0 l/m 0 min 0 min 0 W/m 31,5 km/h (5 Bft) 96,15 %
16.01.2018 04:12 6,3 C 6,1 C 4,4 C 91 % 0 lf 991,9 hPa 0,0 l/m 0 min 0 min 0 W/m 24,8 km/h (4 Bft) 91,49 %
16.01.2018 04:14 6,3 C 6,1 C 4,4 C 91 % 0 lf 991,7 hPa 0,0 l/m 0 min 2 min 0 W/m 33,8 km/h (5 Bft) 93,62 %
16.01.2018 04:16 6,3 C 6,1 C 4,4 C 91 % 0 lf 991,7 hPa 0,0 l/m 0 min 0 min 0 W/m 22,5 km/h (4 Bft) 93,62 %
16.01.2018 04:18 6,3 C 6,1 C 4,4 C 91 % 3 lf 991,7 hPa 0,0 l/m 0 min 0 min 0 W/m 29,3 km/h (5 Bft) 95,65 %
16.01.2018 04:20 6,3 C 6,1 C 4,4 C 91 % 3 lf 991,8 hPa 0,0 l/m 0 min 0 min 0 W/m 29,3 km/h (5 Bft) 93,62 %
16.01.2018 04:22 6,3 C 6,1 C 4,4 C 91 % 5 lf 991,8 hPa 0,0 l/m 0 min 2 min 0 W/m 18,0 km/h (3 Bft) 93,62 %
16.01.2018 04:24 6,3 C 6,1 C 4,4 C 91 % 10 lf 991,8 hPa 0,0 l/m 0 min 2 min 0 W/m 33,8 km/h (5 Bft) 95,12 %
16.01.2018 04:26 6,4 C 5,6 C 4,4 C 91 % 15 lf 991,8 hPa 0,0 l/m 0 min 2 min 0 W/m 29,3 km/h (5 Bft) 95,83 %
16.01.2018 04:28 6,4 C 5,6 C 4,4 C 91 % 15 lf 991,8 hPa 0,0 l/m 0 min 2 min 0 W/m 31,5 km/h (5 Bft) 95,83 %
16.01.2018 04:30 6,4 C 5,6 C 4,4 C 91 % 15 lf 991,8 hPa 0,2 l/m 0 min 2 min 0 W/m 31,5 km/h (5 Bft) 93,62 %
16.01.2018 04:32 6,4 C 5,6 C 4,4 C 91 % 15 lf 991,8 hPa 0,2 l/m 0 min 2 min 0 W/m 29,3 km/h (5 Bft) 93,62 %
16.01.2018 04:34 6,4 C 5,0 C 4,4 C 92 % 15 lf 991,8 hPa 0,0 l/m 0 min 2 min 0 W/m 33,8 km/h (5 Bft) 89,36 %
16.01.2018 04:36 6,4 C 5,0 C 3,9 C 92 % 15 lf 991,7 hPa 0,0 l/m 0 min 2 min 0 W/m 27,0 km/h (4 Bft) 95,83 %
16.01.2018 04:38 6,3 C 5,0 C 3,9 C 92 % 15 lf 991,8 hPa 0,0 l/m 0 min 2 min 0 W/m 27,0 km/h (4 Bft) 95,83 %
16.01.2018 04:40 6,3 C 5,0 C 3,9 C 92 % 15 lf 991,7 hPa 0,0 l/m 0 min 0 min 0 W/m 20,3 km/h (4 Bft) 95,74 %
16.01.2018 04:42 6,3 C 5,0 C 3,9 C 92 % 15 lf 991,7 hPa 0,0 l/m 0 min 0 min 0 W/m 22,5 km/h (4 Bft) 97,87 %
16.01.2018 04:44 6,3 C 5,0 C 3,9 C 92 % 15 lf 991,5 hPa 0,0 l/m 0 min 0 min 0 W/m 24,8 km/h (4 Bft) 95,74 %
16.01.2018 04:46 6,2 C 5,0 C 3,9 C 92 % 15 lf 991,4 hPa 0,2 l/m 0 min 0 min 0 W/m 29,3 km/h (5 Bft) 100,00 %
16.01.2018 04:48 6,2 C 5,0 C 3,9 C 92 % 15 lf 991,5 hPa 0,0 l/m 0 min 0 min 0 W/m 31,5 km/h (5 Bft) 100,00 %
16.01.2018 04:50 6,2 C 5,0 C 3,9 C 92 % 15 lf 991,4 hPa 0,0 l/m 0 min 2 min 0 W/m 31,5 km/h (5 Bft) 97,87 %
16.01.2018 04:52 6,2 C 5,0 C 3,9 C 92 % 15 lf 991,3 hPa 0,0 l/m 0 min 0 min 0 W/m 29,3 km/h (5 Bft) 91,30 %
16.01.2018 04:54 6,2 C 5,0 C 3,9 C 92 % 15 lf 991,3 hPa 0,0 l/m 0 min 2 min 0 W/m 31,5 km/h (5 Bft) 97,87 %
16.01.2018 04:56 6,2 C 5,0 C 3,9 C 92 % 15 lf 991,4 hPa 0,0 l/m 0 min 0 min 0 W/m 42,8 km/h (6 Bft) 100,00 %
16.01.2018 04:58 6,2 C 5,0 C 3,9 C 92 % 15 lf 991,3 hPa 0,0 l/m 0 min 0 min 0 W/m 24,8 km/h (4 Bft) 93,62 %
16.01.2018 05:00 6,1 C 5,6 C 3,9 C 92 % 15 lf 991,3 hPa 0,0 l/m 0 min 0 min 0 W/m 38,3 km/h (5 Bft) 96,00 %
16.01.2018 05:02 6,1 C 5,0 C 3,9 C 93 % 15 lf 991,2 hPa 0,0 l/m 0 min 2 min 0 W/m 31,5 km/h (5 Bft) 97,96 %
16.01.2018 05:04 6,1 C 5,0 C 3,9 C 93 % 15 lf 991,3 hPa 0,0 l/m 0 min 2 min 0 W/m 29,3 km/h (5 Bft) 97,83 %
16.01.2018 05:06 6,1 C 5,0 C 3,9 C 93 % 15 lf 991,2 hPa 0,0 l/m 0 min 0 min 0 W/m 27,0 km/h (4 Bft) 97,87 %
16.01.2018 05:08 6,1 C 5,0 C 3,9 C 93 % 15 lf 991,2 hPa 0,0 l/m 0 min 0 min 0 W/m 33,8 km/h (5 Bft) 93,62 %
16.01.2018 05:10 6,1 C 5,0 C 3,9 C 93 % 15 lf 991,2 hPa 0,0 l/m 0 min 2 min 0 W/m 33,8 km/h (5 Bft) 97,87 %
16.01.2018 05:12 6,1 C 5,0 C 3,9 C 93 % 15 lf 991,2 hPa 0,0 l/m 0 min 0 min 0 W/m 24,8 km/h (4 Bft) 95,74 %
16.01.2018 05:14 6,1 C 5,0 C 3,9 C 93 % 15 lf 991,2 hPa 0,0 l/m 0 min 0 min 0 W/m 36,0 km/h (5 Bft) 97,56 %
16.01.2018 05:16 6,1 C 5,0 C 3,9 C 92 % 15 lf 991,2 hPa 0,0 l/m 0 min 0 min 0 W/m 33,8 km/h (5 Bft) 97,92 %
16.01.2018 05:18 6,1 C 5,0 C 3,9 C 92 % 15 lf 991,2 hPa 0,0 l/m 0 min 0 min 0 W/m 27,0 km/h (4 Bft) 95,83 %
16.01.2018 05:20 6,1 C 5,0 C 3,9 C 92 % 15 lf 991,1 hPa 0,0 l/m 0 min 0 min 0 W/m 31,5 km/h (5 Bft) 95,00 %
16.01.2018 05:22 6,1 C 5,0 C 3,9 C 92 % 15 lf 991,2 hPa 0,0 l/m 0 min 2 min 0 W/m 42,8 km/h (6 Bft) 94,12 %
16.01.2018 05:24 6,1 C 5,0 C 3,9 C 92 % 15 lf 991,1 hPa 0,0 l/m 0 min 2 min 0 W/m 38,3 km/h (5 Bft) 95,83 %
16.01.2018 05:26 6,1 C 5,0 C 3,9 C 92 % 15 lf 991,1 hPa 0,0 l/m 0 min 2 min 0 W/m 33,8 km/h (5 Bft) 93,75 %
16.01.2018 05:28 6,1 C 5,0 C 3,9 C 92 % 15 lf 991,1 hPa 0,0 l/m 0 min 0 min 0 W/m 22,5 km/h (4 Bft) 95,74 %
16.01.2018 05:30 6,1 C 5,0 C 3,3 C 92 % 15 lf 991,1 hPa 0,0 l/m 0 min 0 min 0 W/m 29,3 km/h (5 Bft) 93,62 %
16.01.2018 05:32 6,1 C 5,0 C 3,9 C 92 % 15 lf 991,1 hPa 0,0 l/m 0 min 0 min 0 W/m 36,0 km/h (5 Bft) 95,74 %
16.01.2018 05:34 6,1 C 5,0 C 3,9 C 92 % 15 lf 991,1 hPa 0,0 l/m 0 min 0 min 0 W/m 38,3 km/h (5 Bft) 95,74 %
16.01.2018 05:35 6,1 C 5,0 C 3,9 C 92 % 15 lf 991,1 hPa 0,0 l/m 0 min 0 min 0 W/m 38,3 km/h (5 Bft) 98,25 %
16.01.2018 05:38 6,1 C 5,0 C 3,9 C 92 % 15 lf 991,1 hPa 0,0 l/m 0 min 3 min 0 W/m 15,8 km/h (3 Bft) 100,00 %
16.01.2018 05:40 6,1 C 5,0 C 3,9 C 92 % 15 lf 991,0 hPa 0,0 l/m 0 min 2 min 0 W/m 29,3 km/h (5 Bft) 90,57 %
16.01.2018 05:42 6,1 C 5,0 C 3,9 C 92 % 15 lf 991,0 hPa 0,0 l/m 0 min 0 min 0 W/m 31,5 km/h (5 Bft) 95,83 %
16.01.2018 05:44 6,1 C 5,0 C 3,9 C 92 % 15 lf 990,9 hPa 0,0 l/m 0 min 0 min 0 W/m 33,8 km/h (5 Bft) 93,48 %
16.01.2018 05:46 6,1 C 5,0 C 3,9 C 92 % 15 lf 991,0 hPa 0,0 l/m 0 min 0 min 0 W/m 24,8 km/h (4 Bft) 95,83 %
16.01.2018 05:48 6,1 C 5,0 C 3,9 C 92 % 15 lf 991,0 hPa 0,0 l/m 0 min 0 min 0 W/m 29,3 km/h (5 Bft) 93,62 %
16.01.2018 05:50 6,1 C 5,0 C 3,9 C 92 % 15 lf 991,0 hPa 0,0 l/m 0 min 0 min 0 W/m 22,5 km/h (4 Bft) 97,92 %
16.01.2018 05:52 6,1 C 5,0 C 3,9 C 91 % 15 lf 991,0 hPa 0,0 l/m 0 min 0 min 0 W/m 29,3 km/h (5 Bft) 95,83 %
16.01.2018 05:54 6,1 C 5,0 C 3,9 C 91 % 15 lf 991,0 hPa 0,0 l/m 0 min 0 min 0 W/m 29,3 km/h (5 Bft) 97,87 %
16.01.2018 05:56 6,1 C 5,6 C 3,9 C 91 % 15 lf 990,8 hPa 0,0 l/m 0 min 2 min 0 W/m 29,3 km/h (5 Bft) 93,62 %
16.01.2018 05:58 6,1 C 5,6 C 3,9 C 91 % 15 lf 990,9 hPa 0,0 l/m 0 min 0 min 0 W/m 33,8 km/h (5 Bft) 95,74 %
16.01.2018 06:00 6,1 C 5,6 C 3,9 C 91 % 15 lf 991,0 hPa 0,0 l/m 0 min 0 min 0 W/m 36,0 km/h (5 Bft) 95,74 %
16.01.2018 06:02 6,2 C 5,6 C 3,9 C 91 % 15 lf 990,8 hPa 0,0 l/m 0 min 0 min 0 W/m 36,0 km/h (5 Bft) 97,83 %
16.01.2018 06:04 6,2 C 5,0 C 3,9 C 91 % 14 lf 990,8 hPa 0,0 l/m 0 min 0 min 0 W/m 29,3 km/h (5 Bft) 100,00 %
16.01.2018 06:06 6,2 C 5,0 C 3,9 C 91 % 13 lf 990,8 hPa 0,0 l/m 0 min 0 min 0 W/m 31,5 km/h (5 Bft) 100,00 %
16.01.2018 06:08 6,2 C 5,0 C 3,9 C 91 % 11 lf 990,7 hPa 0,0 l/m 0 min 0 min 0 W/m 29,3 km/h (5 Bft) 100,00 %
16.01.2018 06:10 6,2 C 5,0 C 3,9 C 91 % 10 lf 990,8 hPa 0,0 l/m 0 min 0 min 0 W/m 27,0 km/h (4 Bft) 97,87 %
16.01.2018 06:12 6,2 C 5,0 C 3,9 C 91 % 6 lf 990,8 hPa 0,0 l/m 0 min 0 min 0 W/m 29,3 km/h (5 Bft) 100,00 %
16.01.2018 06:14 6,2 C 5,6 C 3,9 C 91 % 3 lf 990,7 hPa 0,0 l/m 0 min 0 min 0 W/m 27,0 km/h (4 Bft) 100,00 %
16.01.2018 06:16 6,2 C 5,6 C 3,9 C 91 % 3 lf 990,7 hPa 0,0 l/m 0 min 0 min 0 W/m 29,3 km/h (5 Bft) 89,58 %
16.01.2018 06:18 6,2 C 5,6 C 3,9 C 91 % 1 lf 990,7 hPa 0,0 l/m 0 min 0 min 0 W/m 29,3 km/h (5 Bft) 97,87 %
16.01.2018 06:20 6,2 C 5,6 C 3,9 C 91 % 0 lf 990,7 hPa 0,0 l/m 0 min 0 min 0 W/m 29,3 km/h (5 Bft) 97,87 %
16.01.2018 06:22 6,2 C 5,6 C 3,9 C 91 % 0 lf 990,7 hPa 0,0 l/m 0 min 0 min 0 W/m 22,5 km/h (4 Bft) 100,00 %
16.01.2018 06:24 6,2 C 5,6 C 3,9 C 91 % 0 lf 990,7 hPa 0,0 l/m 0 min 0 min 0 W/m 29,3 km/h (5 Bft) 100,00 %
16.01.2018 06:26 6,2 C 5,6 C 3,9 C 91 % 0 lf 990,7 hPa 0,0 l/m 0 min 0 min 0 W/m 27,0 km/h (4 Bft) 97,87 %
16.01.2018 06:28 6,2 C 5,6 C 3,9 C 91 % 0 lf 990,7 hPa 0,0 l/m 0 min 0 min 0 W/m 27,0 km/h (4 Bft) 100,00 %
16.01.2018 06:30 6,2 C 5,6 C 3,9 C 91 % 0 lf 990,6 hPa 0,0 l/m 0 min 2 min 0 W/m 33,8 km/h (5 Bft) 97,87 %
16.01.2018 06:32 6,2 C 5,6 C 3,9 C 91 % 0 lf 990,6 hPa 0,0 l/m 0 min 0 min 0 W/m 29,3 km/h (5 Bft) 100,00 %
16.01.2018 06:34 6,2 C 5,6 C 3,9 C 91 % 0 lf 990,6 hPa 0,0 l/m 0 min 0 min 0 W/m 22,5 km/h (4 Bft) 100,00 %
16.01.2018 06:36 6,2 C 5,6 C 3,9 C 91 % 0 lf 990,6 hPa 0,0 l/m 0 min 0 min 0 W/m 31,5 km/h (5 Bft) 97,56 %
16.01.2018 06:38 6,2 C 5,6 C 3,9 C 91 % 0 lf 990,5 hPa 0,0 l/m 0 min 0 min 0 W/m 33,8 km/h (5 Bft) 97,87 %
16.01.2018 06:40 6,2 C 5,6 C 3,9 C 91 % 0 lf 990,5 hPa 0,0 l/m 0 min 0 min 0 W/m 24,8 km/h (4 Bft) 95,83 %
16.01.2018 06:42 6,2 C 5,6 C 3,9 C 91 % 0 lf 990,6 hPa 0,0 l/m 0 min 0 min 0 W/m 31,5 km/h (5 Bft) 97,87 %
16.01.2018 06:44 6,2 C 5,6 C 3,9 C 91 % 0 lf 990,5 hPa 0,0 l/m 0 min 0 min 0 W/m 31,5 km/h (5 Bft) 97,92 %
16.01.2018 06:46 6,2 C 5,6 C 3,9 C 91 % 0 lf 990,5 hPa 0,0 l/m 0 min 2 min 0 W/m 29,3 km/h (5 Bft) 97,87 %
16.01.2018 06:48 6,2 C 5,6 C 3,9 C 91 % 0 lf 990,6 hPa 0,0 l/m 0 min 0 min 0 W/m 38,3 km/h (5 Bft) 93,62 %
16.01.2018 06:50 6,2 C 5,6 C 3,9 C 91 % 0 lf 990,6 hPa 0,0 l/m 0 min 2 min 0 W/m 33,8 km/h (5 Bft) 91,67 %
16.01.2018 06:52 6,2 C 5,6 C 3,9 C 91 % 0 lf 990,5 hPa 0,0 l/m 0 min 0 min 0 W/m 27,0 km/h (4 Bft) 91,43 %
16.01.2018 06:54 6,2 C 5,6 C 3,9 C 91 % 0 lf 990,5 hPa 0,0 l/m 0 min 0 min 0 W/m 31,5 km/h (5 Bft) 95,74 %
16.01.2018 06:56 6,2 C 5,6 C 3,9 C 90 % 0 lf 990,5 hPa 0,0 l/m 0 min 0 min 0 W/m 31,5 km/h (5 Bft) 93,62 %
16.01.2018 06:58 6,2 C 5,6 C 3,9 C 90 % 0 lf 990,5 hPa 0,0 l/m 0 min 2 min 0 W/m 38,3 km/h (5 Bft) 93,62 %
16.01.2018 07:00 6,2 C 5,6 C 3,9 C 90 % 0 lf 990,5 hPa 0,0 l/m 0 min 0 min 0 W/m 38,3 km/h (5 Bft) 96,00 %
16.01.2018 07:02 6,2 C 5,6 C 3,9 C 90 % 0 lf 990,5 hPa 0,0 l/m 0 min 0 min 0 W/m 33,8 km/h (5 Bft) 95,74 %
16.01.2018 07:04 6,2 C 5,6 C 3,9 C 90 % 0 lf 990,6 hPa 0,0 l/m 0 min 0 min 0 W/m 29,3 km/h (5 Bft) 93,62 %
16.01.2018 07:06 6,2 C 5,6 C 3,9 C 90 % 0 lf 990,6 hPa 0,0 l/m 0 min 0 min 0 W/m 36,0 km/h (5 Bft) 91,49 %
16.01.2018 07:08 6,2 C 5,6 C 3,9 C 90 % 0 lf 990,6 hPa 0,0 l/m 0 min 0 min 0 W/m 31,5 km/h (5 Bft) 95,74 %
16.01.2018 07:10 6,2 C 5,0 C 3,9 C 90 % 0 lf 990,6 hPa 0,0 l/m 0 min 0 min 0 W/m 36,0 km/h (5 Bft) 93,62 %
16.01.2018 07:12 6,2 C 5,6 C 3,9 C 90 % 0 lf 990,7 hPa 0,0 l/m 0 min 0 min 0 W/m 29,3 km/h (5 Bft) 92,68 %
16.01.2018 07:14 6,2 C 5,0 C 3,9 C 90 % 0 lf 990,6 hPa 0,0 l/m 0 min 0 min 0 W/m 36,0 km/h (5 Bft) 93,75 %
16.01.2018 07:16 6,2 C 5,6 C 3,9 C 90 % 0 lf 990,6 hPa 0,0 l/m 0 min 0 min 0 W/m 31,5 km/h (5 Bft) 93,75 %
16.01.2018 07:18 6,2 C 5,6 C 3,9 C 90 % 0 lf 990,6 hPa 0,0 l/m 0 min 0 min 0 W/m 33,8 km/h (5 Bft) 95,74 %
16.01.2018 07:20 6,2 C 5,6 C 3,9 C 90 % 1 lf 990,6 hPa 0,0 l/m 0 min 0 min 0 W/m 33,8 km/h (5 Bft) 93,62 %
16.01.2018 07:22 6,2 C 5,6 C 3,9 C 90 % 0 lf 990,7 hPa 0,0 l/m 0 min 0 min 0 W/m 33,8 km/h (5 Bft) 95,83 %
16.01.2018 07:24 6,2 C 5,6 C 3,9 C 90 % 1 lf 990,6 hPa 0,0 l/m 0 min 2 min 0 W/m 27,0 km/h (4 Bft) 93,62 %
16.01.2018 07:26 6,2 C 5,6 C 3,9 C 90 % 1 lf 990,6 hPa 0,0 l/m 0 min 2 min 0 W/m 33,8 km/h (5 Bft) 95,83 %
16.01.2018 07:28 6,2 C 5,6 C 3,9 C 90 % 1 lf 990,5 hPa 0,0 l/m 0 min 2 min 0 W/m 24,8 km/h (4 Bft) 95,74 %
16.01.2018 07:30 6,2 C 5,6 C 3,9 C 90 % 1 lf 990,5 hPa 0,0 l/m 0 min 2 min 0 W/m 38,3 km/h (5 Bft) 95,74 %
16.01.2018 07:32 6,2 C 5,6 C 3,9 C 90 % 1 lf 990,5 hPa 0,0 l/m 0 min 0 min 0 W/m 29,3 km/h (5 Bft) 95,74 %
16.01.2018 07:34 6,2 C 5,6 C 3,9 C 90 % 0 lf 990,4 hPa 0,0 l/m 0 min 2 min 0 W/m 29,3 km/h (5 Bft) 95,74 %
16.01.2018 07:36 6,2 C 5,6 C 3,9 C 90 % 0 lf 990,5 hPa 0,0 l/m 0 min 2 min 0 W/m 38,3 km/h (5 Bft) 95,65 %
16.01.2018 07:38 6,2 C 5,6 C 3,9 C 90 % 1 lf 990,4 hPa 0,0 l/m 0 min 0 min 0 W/m 31,5 km/h (5 Bft) 97,62 %
16.01.2018 07:40 6,2 C 5,6 C 3,9 C 90 % 0 lf 990,5 hPa 0,0 l/m 0 min 0 min 0 W/m 27,0 km/h (4 Bft) 97,92 %
16.01.2018 07:42 6,2 C 5,6 C 3,9 C 90 % 0 lf 990,5 hPa 0,0 l/m 0 min 0 min 0 W/m 24,8 km/h (4 Bft) 97,96 %
16.01.2018 07:44 6,2 C 5,6 C 3,9 C 90 % 0 lf 990,4 hPa 0,0 l/m 0 min 0 min 0 W/m 31,5 km/h (5 Bft) 95,74 %
16.01.2018 07:46 6,2 C 6,1 C 3,9 C 90 % 0 lf 990,4 hPa 0,0 l/m 0 min 2 min 0 W/m 29,3 km/h (5 Bft) 97,92 %
16.01.2018 07:48 6,2 C 6,1 C 3,9 C 90 % 13 lf 990,5 hPa 0,0 l/m 0 min 2 min 0 W/m 27,0 km/h (4 Bft) 100,00 %
16.01.2018 07:50 6,2 C 5,6 C 3,9 C 91 % 13 lf 990,4 hPa 0,0 l/m 0 min 2 min 0 W/m 29,3 km/h (5 Bft) 100,00 %
16.01.2018 07:52 6,2 C 5,6 C 3,9 C 91 % 13 lf 990,4 hPa 0,0 l/m 0 min 2 min 0 W/m 27,0 km/h (4 Bft) 97,87 %
16.01.2018 07:54 6,2 C 5,6 C 3,9 C 91 % 11 lf 990,4 hPa 0,0 l/m 0 min 0 min 0 W/m 31,5 km/h (5 Bft) 100,00 %
16.01.2018 07:56 6,2 C 5,6 C 3,9 C 91 % 10 lf 990,4 hPa 0,0 l/m 0 min 0 min 0 W/m 24,8 km/h (4 Bft) 95,74 %
16.01.2018 07:58 6,2 C 5,6 C 3,9 C 91 % 9 lf 990,3 hPa 0,0 l/m 0 min 0 min 0 W/m 20,3 km/h (4 Bft) 95,74 %
16.01.2018 08:00 6,2 C 5,6 C 3,9 C 91 % 7 lf 990,5 hPa 0,0 l/m 0 min 0 min 0 W/m 20,3 km/h (4 Bft) 100,00 %
16.01.2018 08:02 6,2 C 6,1 C 3,9 C 91 % 5 lf 990,4 hPa 0,0 l/m 0 min 0 min 0 W/m 20,3 km/h (4 Bft) 97,87 %
16.01.2018 08:04 6,2 C 6,1 C 3,9 C 91 % 4 lf 990,5 hPa 0,0 l/m 0 min 0 min 0 W/m 27,0 km/h (4 Bft) 95,74 %
16.01.2018 08:06 6,2 C 6,1 C 3,9 C 91 % 3 lf 990,4 hPa 0,0 l/m 0 min 0 min 0 W/m 22,5 km/h (4 Bft) 97,92 %
16.01.2018 08:08 6,2 C 6,1 C 3,9 C 91 % 3 lf 990,3 hPa 0,0 l/m 0 min 0 min 0 W/m 18,0 km/h (3 Bft) 100,00 %
16.01.2018 08:10 6,2 C 6,1 C 3,9 C 91 % 2 lf 990,4 hPa 0,0 l/m 0 min 0 min 0 W/m 31,5 km/h (5 Bft) 97,87 %
16.01.2018 08:12 6,2 C 6,1 C 4,4 C 91 % 1 lf 990,4 hPa 0,0 l/m 0 min 0 min 0 W/m 27,0 km/h (4 Bft) 100,00 %
16.01.2018 08:14 6,2 C 6,1 C 4,4 C 91 % 0 lf 990,4 hPa 0,0 l/m 0 min 2 min 0 W/m 31,5 km/h (5 Bft) 100,00 %
16.01.2018 08:16 6,3 C 6,1 C 4,4 C 91 % 0 lf 990,3 hPa 0,0 l/m 0 min 0 min 0 W/m 42,8 km/h (6 Bft) 95,74 %
16.01.2018 08:18 6,3 C 6,1 C 4,4 C 91 % 0 lf 990,4 hPa 0,0 l/m 0 min 2 min 0 W/m 38,3 km/h (5 Bft) 100,00 %
16.01.2018 08:20 6,4 C 6,1 C 4,4 C 91 % 0 lf 990,3 hPa 0,0 l/m 0 min 2 min 0 W/m 36,0 km/h (5 Bft) 100,00 %
16.01.2018 08:22 6,4 C 6,1 C 4,4 C 91 % 0 lf 990,4 hPa 0,0 l/m 0 min 2 min 0 W/m 42,8 km/h (6 Bft) 100,00 %
16.01.2018 08:24 6,4 C 6,1 C 4,4 C 91 % 0 lf 990,5 hPa 0,0 l/m 0 min 2 min 0 W/m 27,0 km/h (4 Bft) 100,00 %
16.01.2018 08:26 6,4 C 6,1 C 4,4 C 91 % 0 lf 990,5 hPa 0,0 l/m 0 min 2 min 0 W/m 31,5 km/h (5 Bft) 97,87 %
16.01.2018 08:28 6,4 C 6,1 C 4,4 C 91 % 0 lf 990,3 hPa 0,0 l/m 0 min 2 min 0 W/m 36,0 km/h (5 Bft) 97,87 %
16.01.2018 08:30 6,4 C 6,1 C 3,9 C 90 % 0 lf 990,3 hPa 0,0 l/m 0 min 2 min 5 W/m 33,8 km/h (5 Bft) 100,00 %
16.01.2018 08:32 6,4 C 6,1 C 3,9 C 90 % 0 lf 990,4 hPa 0,0 l/m 0 min 0 min 5 W/m 36,0 km/h (5 Bft) 100,00 %
16.01.2018 08:34 6,4 C 6,1 C 3,9 C 90 % 0 lf 990,3 hPa 0,0 l/m 0 min 0 min 5 W/m 36,0 km/h (5 Bft) 100,00 %
16.01.2018 08:36 6,4 C 6,1 C 3,9 C 90 % 0 lf 990,2 hPa 0,0 l/m 0 min 0 min 6 W/m 36,0 km/h (5 Bft) 100,00 %
16.01.2018 08:38 6,4 C 6,1 C 3,9 C 90 % 0 lf 990,3 hPa 0,0 l/m 0 min 2 min 7 W/m 36,0 km/h (5 Bft) 95,74 %
16.01.2018 08:40 6,4 C 6,1 C 3,9 C 90 % 0 lf 990,4 hPa 0,0 l/m 0 min 0 min 7 W/m 33,8 km/h (5 Bft) 97,87 %
16.01.2018 08:42 6,4 C 6,1 C 3,9 C 90 % 0 lf 990,5 hPa 0,0 l/m 0 min 0 min 7 W/m 36,0 km/h (5 Bft) 100,00 %
16.01.2018 08:44 6,4 C 6,1 C 4,4 C 90 % 0 lf 990,4 hPa 0,0 l/m 0 min 0 min 7 W/m 29,3 km/h (5 Bft) 100,00 %
16.01.2018 08:46 6,4 C 6,1 C 4,4 C 90 % 0 lf 990,5 hPa 0,0 l/m 0 min 0 min 7 W/m 33,8 km/h (5 Bft) 100,00 %
16.01.2018 08:48 6,4 C 6,1 C 4,4 C 90 % 0 lf 990,5 hPa 0,0 l/m 0 min 0 min 9 W/m 36,0 km/h (5 Bft) 100,00 %
16.01.2018 08:50 6,4 C 6,1 C 4,4 C 90 % 0 lf 990,5 hPa 0,0 l/m 0 min 0 min 9 W/m 24,8 km/h (4 Bft) 97,87 %
16.01.2018 08:52 6,4 C 6,1 C 4,4 C 90 % 0 lf 990,6 hPa 0,0 l/m 0 min 0 min 11 W/m 24,8 km/h (4 Bft) 93,48 %
16.01.2018 08:54 6,4 C 6,7 C 4,4 C 90 % 1 lf 990,5 hPa 0,0 l/m 0 min 0 min 13 W/m 31,5 km/h (5 Bft) 97,87 %
16.01.2018 08:56 6,4 C 6,7 C 4,4 C 90 % 0 lf 990,5 hPa 0,0 l/m 0 min 2 min 18 W/m 33,8 km/h (5 Bft) 97,87 %
16.01.2018 08:58 6,4 C 6,7 C 4,4 C 90 % 1 lf 990,5 hPa 0,0 l/m 0 min 0 min 19 W/m 33,8 km/h (5 Bft) 95,83 %
16.01.2018 09:00 6,4 C 6,7 C 4,4 C 90 % 2 lf 990,5 hPa 0,0 l/m 0 min 0 min 19 W/m 27,0 km/h (4 Bft) 95,74 %
16.01.2018 09:02 6,4 C 6,7 C 4,4 C 90 % 9 lf 990,4 hPa 0,0 l/m 0 min 2 min 14 W/m 38,3 km/h (5 Bft) 93,75 %
16.01.2018 09:04 6,5 C 6,1 C 4,4 C 90 % 9 lf 990,4 hPa 0,0 l/m 0 min 2 min 14 W/m 31,5 km/h (5 Bft) 93,48 %
16.01.2018 09:06 6,4 C 6,1 C 3,9 C 89 % 7 lf 990,4 hPa 0,0 l/m 0 min 2 min 16 W/m 36,0 km/h (5 Bft) 91,49 %
16.01.2018 09:08 6,4 C 6,1 C 4,4 C 89 % 3 lf 990,5 hPa 0,0 l/m 0 min 2 min 15 W/m 47,3 km/h (6 Bft) 95,74 %
16.01.2018 09:10 6,4 C 6,1 C 4,4 C 89 % 2 lf 990,6 hPa 0,0 l/m 0 min 2 min 16 W/m 38,3 km/h (5 Bft) 91,49 %
16.01.2018 09:12 6,5 C 6,1 C 4,4 C 89 % 1 lf 990,6 hPa 0,0 l/m 0 min 2 min 23 W/m 36,0 km/h (5 Bft) 93,62 %
16.01.2018 09:14 6,5 C 6,1 C 4,4 C 89 % 0 lf 990,6 hPa 0,0 l/m 0 min 0 min 28 W/m 27,0 km/h (4 Bft) 93,62 %
16.01.2018 09:16 6,5 C 6,1 C 4,4 C 89 % 0 lf 990,6 hPa 0,0 l/m 0 min 2 min 33 W/m 31,5 km/h (5 Bft) 95,74 %
16.01.2018 09:18 6,5 C 6,7 C 4,4 C 90 % 0 lf 990,5 hPa 0,0 l/m 0 min 0 min 31 W/m 27,0 km/h (4 Bft) 93,62 %
16.01.2018 09:20 6,5 C 6,7 C 4,4 C 90 % 0 lf 990,5 hPa 0,0 l/m 0 min 0 min 35 W/m 33,8 km/h (5 Bft) 91,49 %
16.01.2018 09:22 6,5 C 6,7 C 4,4 C 90 % 0 lf 990,5 hPa 0,0 l/m 0 min 0 min 39 W/m 33,8 km/h (5 Bft) 89,58 %
16.01.2018 09:24 6,5 C 6,7 C 4,4 C 90 % 0 lf 990,5 hPa 0,0 l/m 0 min 2 min 40 W/m 36,0 km/h (5 Bft) 91,49 %
16.01.2018 09:26 6,4 C 6,7 C 5,0 C 90 % 0 lf 990,5 hPa 0,0 l/m 0 min 2 min 38 W/m 38,3 km/h (5 Bft) 91,49 %
16.01.2018 09:28 6,4 C 6,7 C 5,0 C 90 % 0 lf 990,5 hPa 0,0 l/m 0 min 0 min 34 W/m 38,3 km/h (5 Bft) 91,49 %
16.01.2018 09:30 6,4 C 6,7 C 4,4 C 89 % 0 lf 990,6 hPa 0,0 l/m 0 min 2 min 52 W/m 33,8 km/h (5 Bft) 93,62 %
16.01.2018 09:32 6,4 C 6,7 C 5,0 C 89 % 0 lf 990,6 hPa 0,0 l/m 0 min 0 min 57 W/m 29,3 km/h (5 Bft) 97,87 %
16.01.2018 09:34 6,5 C 6,7 C 5,0 C 89 % 0 lf 990,6 hPa 0,0 l/m 0 min 0 min 39 W/m 40,6 km/h (6 Bft) 95,65 %
16.01.2018 09:36 6,5 C 6,7 C 5,0 C 89 % 0 lf 990,6 hPa 0,0 l/m 0 min 0 min 48 W/m 40,6 km/h (6 Bft) 95,74 %
16.01.2018 09:38 6,5 C 6,7 C 5,0 C 89 % 0 lf 990,5 hPa 0,0 l/m 0 min 0 min 68 W/m 31,5 km/h (5 Bft) 95,74 %
16.01.2018 09:40 6,6 C 7,2 C 5,6 C 89 % 0 lf 990,6 hPa 0,0 l/m 2 min 0 min 77 W/m 36,0 km/h (5 Bft) 93,62 %
16.01.2018 09:42 6,6 C 7,2 C 5,6 C 89 % 0 lf 990,6 hPa 0,0 l/m 2 min 0 min 120 W/m 45,1 km/h (6 Bft) 93,62 %
16.01.2018 09:44 6,6 C 7,2 C 6,1 C 89 % 0 lf 990,6 hPa 0,0 l/m 2 min 2 min 156 W/m 29,3 km/h (5 Bft) 93,62 %
16.01.2018 09:46 6,7 C 7,8 C 6,1 C 89 % 0 lf 990,6 hPa 0,0 l/m 2 min 0 min 169 W/m 40,6 km/h (6 Bft) 93,48 %
16.01.2018 09:48 6,7 C 7,8 C 6,1 C 89 % 0 lf 990,6 hPa 0,0 l/m 2 min 0 min 185 W/m 45,1 km/h (6 Bft) 93,62 %
16.01.2018 09:50 6,7 C 7,8 C 6,1 C 89 % 1 lf 990,6 hPa 0,0 l/m 2 min 2 min 153 W/m 49,6 km/h (6 Bft) 93,62 %
16.01.2018 09:52 6,8 C 7,2 C 5,6 C 89 % 11 lf 990,6 hPa 0,0 l/m 2 min 2 min 110 W/m 42,8 km/h (6 Bft) 95,74 %
16.01.2018 09:54 6,8 C 7,2 C 5,6 C 89 % 15 lf 990,7 hPa 0,0 l/m 0 min 2 min 48 W/m 42,8 km/h (6 Bft) 95,74 %
16.01.2018 09:56 6,8 C 6,7 C 5,0 C 89 % 15 lf 990,7 hPa 0,0 l/m 0 min 2 min 29 W/m 42,8 km/h (6 Bft) 95,65 %
16.01.2018 09:58 6,8 C 6,1 C 4,4 C 89 % 15 lf 990,8 hPa 0,0 l/m 0 min 2 min 23 W/m 31,5 km/h (5 Bft) 93,62 %
16.01.2018 10:00 6,8 C 6,1 C 4,4 C 89 % 15 lf 990,8 hPa 0,0 l/m 0 min 2 min 28 W/m 49,6 km/h (6 Bft) 95,74 %
16.01.2018 10:02 6,7 C 6,1 C 4,4 C 89 % 15 lf 990,8 hPa 0,0 l/m 0 min 2 min 28 W/m 38,3 km/h (5 Bft) 93,62 %
16.01.2018 10:04 6,7 C 5,6 C 4,4 C 89 % 15 lf 990,8 hPa 0,2 l/m 0 min 2 min 26 W/m 24,8 km/h (4 Bft) 95,74 %
16.01.2018 10:06 6,7 C 5,0 C 3,9 C 89 % 15 lf 990,8 hPa 0,2 l/m 0 min 2 min 21 W/m 54,1 km/h (7 Bft) 97,87 %
16.01.2018 10:08 6,4 C 4,4 C 1,7 C 89 % 15 lf 990,7 hPa 0,2 l/m 0 min 2 min 21 W/m 54,1 km/h (7 Bft) 95,74 %
16.01.2018 10:10 6,1 C 3,9 C 0,6 C 88 % 15 lf 990,6 hPa 0,2 l/m 0 min 2 min 28 W/m 40,6 km/h (6 Bft) 95,74 %
16.01.2018 10:12 5,9 C 3,9 C 1,7 C 87 % 15 lf 990,8 hPa 0,2 l/m 0 min 2 min 67 W/m 38,3 km/h (5 Bft) 91,49 %
16.01.2018 10:14 5,7 C 3,9 C 1,7 C 88 % 15 lf 990,8 hPa 0,2 l/m 0 min 2 min 38 W/m 31,5 km/h (5 Bft) 97,83 %
16.01.2018 10:16 5,6 C 3,9 C 1,7 C 88 % 15 lf 990,8 hPa 0,2 l/m 0 min 2 min 11 W/m 24,8 km/h (4 Bft) 93,62 %
16.01.2018 10:18 5,5 C 3,9 C 1,7 C 88 % 15 lf 991,3 hPa 0,2 l/m 0 min 2 min 5 W/m 51,8 km/h (7 Bft) 97,87 %
16.01.2018 10:20 5,2 C 2,8 C 0,0 C 88 % 15 lf 991,3 hPa 0,4 l/m 0 min 2 min 3 W/m 60,8 km/h (7 Bft) 93,62 %
16.01.2018 10:22 4,9 C 2,8 C -0,6 C 88 % 15 lf 991,3 hPa 0,2 l/m 0 min 2 min 5 W/m 58,6 km/h (7 Bft) 93,62 %
16.01.2018 10:24 4,5 C 2,2 C -0,6 C 88 % 15 lf 991,3 hPa 0,4 l/m 0 min 2 min 1 W/m 63,1 km/h (8 Bft) 97,83 %
16.01.2018 10:26 4,2 C 2,8 C 0,6 C 88 % 15 lf 991,3 hPa 0,2 l/m 0 min 2 min 3 W/m 38,3 km/h (5 Bft) 97,87 %
16.01.2018 10:28 4,1 C 2,8 C 1,1 C 89 % 15 lf 991,3 hPa 0,2 l/m 0 min 2 min 5 W/m 40,6 km/h (6 Bft) 97,87 %
16.01.2018 10:30 4,0 C 2,8 C 1,1 C 89 % 15 lf 991,2 hPa 0,0 l/m 0 min 2 min 5 W/m 29,3 km/h (5 Bft) 97,87 %
16.01.2018 10:32 3,9 C 2,8 C 1,1 C 90 % 15 lf 991,3 hPa 0,2 l/m 0 min 2 min 5 W/m 42,8 km/h (6 Bft) 87,23 %
16.01.2018 10:34 3,8 C 2,8 C 1,1 C 90 % 15 lf 991,4 hPa 0,2 l/m 0 min 2 min 7 W/m 31,5 km/h (5 Bft) 95,74 %
16.01.2018 10:36 3,8 C 2,8 C 1,1 C 91 % 15 lf 991,5 hPa 0,0 l/m 0 min 2 min 7 W/m 42,8 km/h (6 Bft) 97,83 %
16.01.2018 10:38 3,7 C 2,8 C 1,1 C 91 % 15 lf 991,4 hPa 0,2 l/m 0 min 2 min 11 W/m 36,0 km/h (5 Bft) 100,00 %
16.01.2018 10:40 3,7 C 2,8 C 1,1 C 91 % 15 lf 991,4 hPa 0,2 l/m 0 min 2 min 9 W/m 38,3 km/h (5 Bft) 97,87 %
16.01.2018 10:42 3,7 C 2,8 C 1,1 C 92 % 15 lf 991,5 hPa 0,0 l/m 0 min 2 min 9 W/m 31,5 km/h (5 Bft) 97,87 %
16.01.2018 10:44 3,7 C 2,8 C 1,7 C 92 % 15 lf 991,5 hPa 0,0 l/m 0 min 2 min 10 W/m 27,0 km/h (4 Bft) 100,00 %
16.01.2018 10:46 3,7 C 2,8 C 1,7 C 92 % 15 lf 991,5 hPa 0,2 l/m 0 min 2 min 11 W/m 42,8 km/h (6 Bft) 100,00 %
16.01.2018 10:48 3,6 C 2,8 C 1,7 C 92 % 15 lf 991,5 hPa 0,0 l/m 0 min 2 min 11 W/m 22,5 km/h (4 Bft) 97,83 %
16.01.2018 10:50 3,6 C 2,8 C 1,7 C 92 % 15 lf 991,6 hPa 0,0 l/m 0 min 0 min 12 W/m 33,8 km/h (5 Bft) 97,87 %
16.01.2018 10:52 3,7 C 3,3 C 1,7 C 93 % 15 lf 991,6 hPa 0,0 l/m 0 min 0 min 13 W/m 31,5 km/h (5 Bft) 100,00 %
16.01.2018 10:54 3,6 C 3,3 C 1,7 C 93 % 15 lf 991,7 hPa 0,0 l/m 0 min 2 min 13 W/m 27,0 km/h (4 Bft) 97,87 %
16.01.2018 10:56 3,6 C 2,8 C 1,1 C 93 % 15 lf 992,0 hPa 0,2 l/m 0 min 2 min 9 W/m 36,0 km/h (5 Bft) 93,62 %
16.01.2018 10:58 3,6 C 2,8 C 0,6 C 93 % 15 lf 992,0 hPa 0,2 l/m 0 min 2 min 5 W/m 38,3 km/h (5 Bft) 97,87 %
16.01.2018 11:00 3,5 C 2,2 C -0,6 C 93 % 15 lf 992,0 hPa 0,2 l/m 0 min 2 min 6 W/m 40,6 km/h (6 Bft) 95,65 %
16.01.2018 11:02 3,4 C 2,2 C -0,6 C 93 % 15 lf 992,1 hPa 0,2 l/m 0 min 2 min 7 W/m 40,6 km/h (6 Bft) 97,87 %
16.01.2018 11:04 3,2 C 1,7 C -0,6 C 93 % 15 lf 992,1 hPa 0,0 l/m 0 min 2 min 7 W/m 54,1 km/h (7 Bft) 93,62 %
16.01.2018 11:06 3,1 C 1,7 C -0,6 C 93 % 15 lf 992,2 hPa 0,2 l/m 0 min 2 min 6 W/m 40,6 km/h (6 Bft) 97,87 %
16.01.2018 11:08 2,9 C 1,7 C 0,0 C 93 % 15 lf 992,3 hPa 0,2 l/m 0 min 2 min 9 W/m 33,8 km/h (5 Bft) 95,74 %
16.01.2018 11:10 2,8 C 1,7 C 0,0 C 93 % 15 lf 992,3 hPa 0,0 l/m 0 min 2 min 11 W/m 29,3 km/h (5 Bft) 97,87 %
16.01.2018 11:12 2,7 C 1,7 C 0,0 C 93 % 15 lf 992,3 hPa 0,2 l/m 0 min 2 min 11 W/m 38,3 km/h (5 Bft) 95,74 %
16.01.2018 11:14 2,6 C 1,7 C 0,0 C 93 % 15 lf 992,2 hPa 0,2 l/m 0 min 2 min 11 W/m 31,5 km/h (5 Bft) 97,87 %
16.01.2018 11:16 2,5 C 1,7 C 0,6 C 93 % 15 lf 992,1 hPa 0,0 l/m 0 min 2 min 23 W/m 36,0 km/h (5 Bft) 97,87 %
16.01.2018 11:18 2,5 C 1,7 C 0,6 C 93 % 15 lf 992,1 hPa 0,2 l/m 0 min 2 min 41 W/m 27,0 km/h (4 Bft) 97,87 %
16.01.2018 11:20 2,4 C 2,2 C 0,6 C 93 % 15 lf 992,2 hPa 0,0 l/m 0 min 2 min 58 W/m 27,0 km/h (4 Bft) 93,62 %
16.01.2018 11:22 2,4 C 2,2 C 0,6 C 93 % 15 lf 992,1 hPa 0,0 l/m 0 min 2 min 47 W/m 33,8 km/h (5 Bft) 97,83 %
16.01.2018 11:24 2,4 C 2,2 C 0,6 C 93 % 15 lf 992,1 hPa 0,2 l/m 0 min 2 min 54 W/m 24,8 km/h (4 Bft) 100,00 %
16.01.2018 11:26 2,4 C 2,2 C 0,6 C 94 % 15 lf 992,1 hPa 0,0 l/m 0 min 2 min 49 W/m 18,0 km/h (3 Bft) 100,00 %
16.01.2018 11:28 2,4 C 2,2 C 0,6 C 94 % 15 lf 992,2 hPa 0,0 l/m 0 min 2 min 33 W/m 22,5 km/h (4 Bft) 95,74 %
16.01.2018 11:30 2,4 C 2,2 C 0,6 C 94 % 15 lf 992,2 hPa 0,0 l/m 0 min 2 min 39 W/m 18,0 km/h (3 Bft) 97,87 %
16.01.2018 11:32 2,4 C 2,2 C 0,6 C 94 % 15 lf 992,2 hPa 0,0 l/m 0 min 2 min 55 W/m 20,3 km/h (4 Bft) 97,87 %
16.01.2018 11:34 2,4 C 2,2 C 0,6 C 94 % 15 lf 992,0 hPa 0,0 l/m 0 min 2 min 49 W/m 13,5 km/h (3 Bft) 97,83 %
16.01.2018 11:36 2,4 C 2,2 C 0,6 C 94 % 15 lf 992,2 hPa 0,2 l/m 0 min 0 min 43 W/m 22,5 km/h (4 Bft) 97,87 %
16.01.2018 11:38 2,4 C 2,2 C 0,6 C 94 % 15 lf 992,2 hPa 0,0 l/m 0 min 0 min 51 W/m 20,3 km/h (4 Bft) 93,62 %
16.01.2018 11:40 2,4 C 2,8 C 0,6 C 94 % 15 lf 992,2 hPa 0,0 l/m 0 min 0 min 85 W/m 15,8 km/h (3 Bft) 95,74 %
16.01.2018 11:42 2,4 C 2,8 C 1,1 C 94 % 15 lf 992,2 hPa 0,0 l/m 0 min 0 min 66 W/m 18,0 km/h (3 Bft) 97,87 %
16.01.2018 11:44 2,4 C 2,8 C 1,1 C 94 % 15 lf 992,3 hPa 0,0 l/m 0 min 0 min 49 W/m 18,0 km/h (3 Bft) 97,87 %
16.01.2018 11:46 2,5 C 2,8 C 1,1 C 95 % 15 lf 992,3 hPa 0,0 l/m 0 min 0 min 48 W/m 13,5 km/h (3 Bft) 93,48 %
16.01.2018 11:48 2,5 C 2,8 C 1,1 C 95 % 15 lf 992,6 hPa 0,0 l/m 0 min 0 min 58 W/m 15,8 km/h (3 Bft) 97,87 %
16.01.2018 11:50 2,6 C 2,8 C 1,1 C 95 % 15 lf 992,8 hPa 0,2 l/m 0 min 2 min 49 W/m 20,3 km/h (4 Bft) 95,74 %
16.01.2018 11:52 2,6 C 2,8 C 1,1 C 95 % 15 lf 992,9 hPa 0,0 l/m 0 min 2 min 37 W/m 18,0 km/h (3 Bft) 93,62 %
16.01.2018 11:54 2,6 C 2,8 C 1,1 C 95 % 15 lf 992,9 hPa 0,0 l/m 0 min 2 min 30 W/m 15,8 km/h (3 Bft) 95,74 %
16.01.2018 11:56 2,7 C 2,8 C 1,1 C 95 % 15 lf 993,0 hPa 0,0 l/m 0 min 2 min 38 W/m 31,5 km/h (5 Bft) 91,49 %
16.01.2018 11:58 2,7 C 2,8 C 1,7 C 95 % 15 lf 993,0 hPa 0,2 l/m 0 min 2 min 90 W/m 36,0 km/h (5 Bft) 97,83 %
16.01.2018 12:00 2,7 C 2,8 C 1,7 C 95 % 15 lf 993,0 hPa 0,2 l/m 0 min 2 min 141 W/m 33,8 km/h (5 Bft) 97,87 %
16.01.2018 12:02 2,8 C 3,3 C 1,7 C 95 % 15 lf 993,0 hPa 0,0 l/m 0 min 2 min 143 W/m 33,8 km/h (5 Bft) 93,62 %
16.01.2018 12:04 2,8 C 2,8 C 1,7 C 95 % 15 lf 993,1 hPa 0,2 l/m 0 min 2 min 109 W/m 40,6 km/h (6 Bft) 95,74 %
16.01.2018 12:06 2,8 C 2,8 C 1,7 C 95 % 15 lf 993,1 hPa 0,0 l/m 0 min 2 min 93 W/m 31,5 km/h (5 Bft) 97,87 %
16.01.2018 12:08 2,9 C 2,8 C 1,7 C 95 % 15 lf 993,0 hPa 0,2 l/m 0 min 2 min 91 W/m 29,3 km/h (5 Bft) 97,87 %
16.01.2018 12:10 2,9 C 2,8 C 1,1 C 95 % 15 lf 993,0 hPa 0,0 l/m 0 min 2 min 76 W/m 22,5 km/h (4 Bft) 97,83 %
16.01.2018 12:12 2,8 C 2,2 C 0,6 C 95 % 15 lf 993,1 hPa 0,2 l/m 0 min 2 min 43 W/m 29,3 km/h (5 Bft) 97,87 %
16.01.2018 12:14 2,8 C 2,2 C 0,6 C 95 % 15 lf 993,1 hPa 0,0 l/m 0 min 2 min 32 W/m 36,0 km/h (5 Bft) 89,36 %
16.01.2018 12:16 2,7 C 2,2 C 0,6 C 95 % 15 lf 993,0 hPa 0,2 l/m 0 min 2 min 25 W/m 29,3 km/h (5 Bft) 97,87 %
16.01.2018 12:18 2,7 C 2,2 C 0,6 C 95 % 15 lf 993,1 hPa 0,0 l/m 0 min 2 min 21 W/m 29,3 km/h (5 Bft) 97,87 %
16.01.2018 12:20 2,6 C 2,2 C 0,6 C 95 % 15 lf 993,0 hPa 0,0 l/m 0 min 2 min 22 W/m 20,3 km/h (4 Bft) 97,83 %
16.01.2018 12:22 2,6 C 2,2 C 0,6 C 95 % 15 lf 993,0 hPa 0,0 l/m 0 min 2 min 31 W/m 27,0 km/h (4 Bft) 100,00 %
16.01.2018 12:24 2,5 C 2,2 C 0,6 C 95 % 15 lf 993,0 hPa 0,2 l/m 0 min 0 min 44 W/m 22,5 km/h (4 Bft) 100,00 %
16.01.2018 12:26 2,5 C 2,2 C 0,6 C 95 % 15 lf 993,0 hPa 0,0 l/m 0 min 0 min 41 W/m 22,5 km/h (4 Bft) 100,00 %
16.01.2018 12:28 2,4 C 2,2 C 0,6 C 95 % 15 lf 993,0 hPa 0,0 l/m 0 min 0 min 37 W/m 24,8 km/h (4 Bft) 100,00 %
16.01.2018 12:30 2,4 C 2,2 C 0,6 C 96 % 15 lf 993,0 hPa 0,0 l/m 0 min 0 min 48 W/m 20,3 km/h (4 Bft) 97,87 %
16.01.2018 12:32 2,4 C 2,2 C 0,6 C 96 % 15 lf 993,0 hPa 0,0 l/m 0 min 0 min 53 W/m 22,5 km/h (4 Bft) 100,00 %
16.01.2018 12:34 2,4 C 2,2 C 0,6 C 96 % 15 lf 993,1 hPa 0,0 l/m 0 min 0 min 50 W/m 15,8 km/h (3 Bft) 100,00 %
16.01.2018 12:36 2,4 C 2,2 C 0,6 C 96 % 15 lf 993,0 hPa 0,0 l/m 0 min 0 min 45 W/m 15,8 km/h (3 Bft) 95,74 %
16.01.2018 12:38 2,4 C 2,2 C 1,1 C 96 % 15 lf 993,0 hPa 0,0 l/m 0 min 0 min 56 W/m 22,5 km/h (4 Bft) 100,00 %
16.01.2018 12:40 2,4 C 2,8 C 1,1 C 96 % 15 lf 993,0 hPa 0,0 l/m 0 min 0 min 77 W/m 18,0 km/h (3 Bft) 100,00 %
16.01.2018 12:42 2,4 C 2,8 C 1,1 C 96 % 15 lf 993,0 hPa 0,0 l/m 0 min 0 min 68 W/m 20,3 km/h (4 Bft) 97,87 %
16.01.2018 12:44 2,5 C 2,8 C 1,1 C 96 % 15 lf 993,0 hPa 0,2 l/m 0 min 0 min 77 W/m 20,3 km/h (4 Bft) 100,00 %
16.01.2018 12:46 2,5 C 2,8 C 1,7 C 96 % 15 lf 993,1 hPa 0,0 l/m 0 min 0 min 90 W/m 13,5 km/h (3 Bft) 91,49 %
16.01.2018 12:48 2,6 C 2,8 C 1,7 C 96 % 15 lf 993,1 hPa 0,0 l/m 0 min 0 min 79 W/m 18,0 km/h (3 Bft) 95,74 %
16.01.2018 12:50 2,6 C 2,8 C 1,7 C 96 % 15 lf 993,5 hPa 0,0 l/m 0 min 2 min 34 W/m 15,8 km/h (3 Bft) 95,83 %
16.01.2018 12:52 2,6 C 2,8 C 1,7 C 96 % 15 lf 993,4 hPa 0,0 l/m 0 min 2 min 30 W/m 20,3 km/h (4 Bft) 91,49 %
16.01.2018 12:54 2,6 C 2,8 C 1,7 C 96 % 15 lf 993,4 hPa 0,0 l/m 0 min 2 min 33 W/m 20,3 km/h (4 Bft) 93,62 %
16.01.2018 12:56 2,7 C 2,8 C 1,7 C 96 % 15 lf 993,5 hPa 0,2 l/m 0 min 2 min 51 W/m 9,0 km/h (2 Bft) 97,83 %
16.01.2018 12:58 2,7 C 2,8 C 1,7 C 96 % 15 lf 993,4 hPa 0,2 l/m 0 min 2 min 69 W/m 18,0 km/h (3 Bft) 95,74 %
16.01.2018 13:00 2,7 C 2,8 C 1,7 C 96 % 15 lf 993,5 hPa 0,0 l/m 0 min 2 min 70 W/m 18,0 km/h (3 Bft) 95,74 %
16.01.2018 13:02 2,7 C 2,8 C 1,7 C 96 % 15 lf 993,4 hPa 0,0 l/m 0 min 0 min 70 W/m 22,5 km/h (4 Bft) 97,87 %
16.01.2018 13:04 2,8 C 2,8 C 1,7 C 96 % 15 lf 993,4 hPa 0,0 l/m 0 min 2 min 65 W/m 15,8 km/h (3 Bft) 91,49 %
16.01.2018 13:06 2,8 C 2,8 C 1,7 C 96 % 15 lf 993,4 hPa 0,0 l/m 0 min 0 min 66 W/m 24,8 km/h (4 Bft) 93,48 %
16.01.2018 13:08 2,8 C 2,8 C 1,7 C 96 % 15 lf 993,3 hPa 0,0 l/m 0 min 0 min 64 W/m 18,0 km/h (3 Bft) 89,36 %
16.01.2018 13:10 2,8 C 2,8 C 1,1 C 96 % 15 lf 993,3 hPa 0,0 l/m 0 min 0 min 58 W/m 18,0 km/h (3 Bft) 95,74 %
16.01.2018 13:12 2,8 C 2,8 C 1,1 C 96 % 15 lf 993,2 hPa 0,0 l/m 0 min 0 min 54 W/m 13,5 km/h (3 Bft) 93,62 %
16.01.2018 13:14 2,8 C 2,8 C 1,1 C 96 % 15 lf 993,2 hPa 0,0 l/m 0 min 0 min 51 W/m 20,3 km/h (4 Bft) 91,49 %
16.01.2018 13:16 2,8 C 2,8 C 1,7 C 96 % 15 lf 993,3 hPa 0,0 l/m 0 min 0 min 51 W/m 18,0 km/h (3 Bft) 87,23 %
16.01.2018 13:18 2,9 C 2,8 C 1,7 C 96 % 15 lf 993,3 hPa 0,2 l/m 0 min 0 min 50 W/m 18,0 km/h (3 Bft) 93,48 %
16.01.2018 13:20 2,9 C 2,8 C 1,7 C 96 % 15 lf 993,2 hPa 0,0 l/m 0 min 0 min 48 W/m 18,0 km/h (3 Bft) 95,74 %
16.01.2018 13:22 2,9 C 2,8 C 1,7 C 96 % 15 lf 993,2 hPa 0,0 l/m 0 min 0 min 48 W/m 22,5 km/h (4 Bft) 89,36 %
16.01.2018 13:24 2,9 C 2,8 C 1,7 C 96 % 15 lf 993,2 hPa 0,0 l/m 0 min 0 min 57 W/m 22,5 km/h (4 Bft) 95,74 %
16.01.2018 13:26 2,9 C 3,3 C 1,7 C 96 % 15 lf 993,2 hPa 0,0 l/m 0 min 0 min 77 W/m 22,5 km/h (4 Bft) 91,49 %
16.01.2018 13:28 2,9 C 3,3 C 2,2 C 96 % 15 lf 993,1 hPa 0,0 l/m 0 min 0 min 86 W/m 20,3 km/h (4 Bft) 95,74 %
16.01.2018 13:30 3,0 C 3,3 C 2,2 C 97 % 15 lf 993,0 hPa 0,0 l/m 0 min 0 min 75 W/m 20,3 km/h (4 Bft) 95,65 %
16.01.2018 13:32 3,0 C 3,3 C 2,2 C 97 % 15 lf 993,1 hPa 0,0 l/m 0 min 0 min 77 W/m 18,0 km/h (3 Bft) 95,74 %
16.01.2018 13:34 3,1 C 3,3 C 2,2 C 97 % 15 lf 993,1 hPa 0,0 l/m 0 min 0 min 95 W/m 22,5 km/h (4 Bft) 95,74 %
16.01.2018 13:36 3,1 C 3,3 C 2,2 C 97 % 15 lf 993,0 hPa 0,0 l/m 0 min 0 min 131 W/m 18,0 km/h (3 Bft) 97,87 %
16.01.2018 13:38 3,1 C 3,9 C 2,8 C 97 % 15 lf 993,0 hPa 0,2 l/m 0 min 0 min 119 W/m 22,5 km/h (4 Bft) 97,14 %
16.01.2018 13:40 3,2 C 3,3 C 2,8 C 96 % 15 lf 993,0 hPa 0,0 l/m 0 min 0 min 105 W/m 20,3 km/h (4 Bft) 93,62 %
16.01.2018 13:42 3,2 C 3,3 C 2,8 C 97 % 15 lf 993,0 hPa 0,0 l/m 0 min 0 min 95 W/m 15,8 km/h (3 Bft) 97,87 %
16.01.2018 13:44 3,3 C 3,3 C 2,8 C 97 % 15 lf 993,1 hPa 0,0 l/m 0 min 0 min 87 W/m 15,8 km/h (3 Bft) 97,87 %
16.01.2018 13:46 3,3 C 3,3 C 2,8 C 97 % 15 lf 993,0 hPa 0,0 l/m 0 min 2 min 88 W/m 18,0 km/h (3 Bft) 97,96 %
16.01.2018 13:48 3,4 C 3,9 C 2,8 C 97 % 15 lf 992,9 hPa 0,0 l/m 0 min 0 min 97 W/m 20,3 km/h (4 Bft) 97,87 %
16.01.2018 13:50 3,4 C 3,9 C 2,8 C 97 % 15 lf 993,0 hPa 0,0 l/m 0 min 2 min 120 W/m 27,0 km/h (4 Bft) 96,55 %
16.01.2018 13:52 3,5 C 3,9 C 3,3 C 97 % 15 lf 993,0 hPa 0,0 l/m 0 min 0 min 155 W/m 29,3 km/h (5 Bft) 94,29 %
16.01.2018 13:54 3,5 C 4,4 C 3,9 C 97 % 15 lf 992,9 hPa 0,0 l/m 2 min 0 min 239 W/m 20,3 km/h (4 Bft) 97,87 %
16.01.2018 13:56 3,6 C 4,4 C 3,9 C 97 % 15 lf 993,0 hPa 0,2 l/m 2 min 0 min 230 W/m 38,3 km/h (5 Bft) 95,74 %
16.01.2018 13:58 3,7 C 3,9 C 3,3 C 97 % 15 lf 993,0 hPa 0,0 l/m 2 min 0 min 177 W/m 38,3 km/h (5 Bft) 97,87 %
16.01.2018 14:00 3,7 C 3,9 C 3,3 C 97 % 15 lf 993,1 hPa 0,0 l/m 0 min 0 min 114 W/m 31,5 km/h (5 Bft) 97,87 %
16.01.2018 14:02 3,7 C 3,9 C 2,8 C 97 % 15 lf 993,2 hPa 0,0 l/m 0 min 0 min 43 W/m 29,3 km/h (5 Bft) 97,87 %
16.01.2018 14:04 3,7 C 3,9 C 2,8 C 97 % 15 lf 993,1 hPa 0,0 l/m 0 min 2 min 34 W/m 20,3 km/h (4 Bft) 97,83 %
16.01.2018 14:06 3,7 C 3,3 C 2,2 C 97 % 15 lf 993,0 hPa 0,2 l/m 0 min 2 min 38 W/m 15,8 km/h (3 Bft) 95,74 %
16.01.2018 14:08 3,7 C 3,3 C 2,2 C 97 % 15 lf 993,0 hPa 0,0 l/m 0 min 2 min 38 W/m 9,0 km/h (2 Bft) 95,74 %
16.01.2018 14:10 3,7 C 3,3 C 1,7 C 96 % 15 lf 993,1 hPa 0,0 l/m 0 min 2 min 59 W/m 20,3 km/h (4 Bft) 97,87 %
16.01.2018 14:12 3,7 C 5,6 C 2,2 C 96 % 15 lf 993,0 hPa 0,0 l/m 0 min 0 min 137 W/m 13,5 km/h (3 Bft) 97,87 %
16.01.2018 14:14 3,6 C 7,2 C 2,2 C 96 % 15 lf 993,1 hPa 0,2 l/m 2 min 0 min 207 W/m 13,5 km/h (3 Bft) 97,87 %
16.01.2018 14:16 3,7 C 8,3 C 2,8 C 96 % 15 lf 993,0 hPa 0,0 l/m 2 min 0 min 208 W/m 13,5 km/h (3 Bft) 95,65 %
16.01.2018 14:18 3,7 C 7,8 C 2,8 C 96 % 15 lf 993,0 hPa 0,0 l/m 2 min 0 min 180 W/m 22,5 km/h (4 Bft) 97,87 %
16.01.2018 14:20 3,7 C 7,8 C 2,2 C 96 % 15 lf 993,0 hPa 0,0 l/m 2 min 0 min 198 W/m 13,5 km/h (3 Bft) 94,92 %
16.01.2018 14:22 3,7 C 8,3 C 2,8 C 96 % 15 lf 992,9 hPa 0,0 l/m 2 min 0 min 210 W/m 18,0 km/h (3 Bft) 100,00 %
16.01.2018 14:24 3,8 C 8,9 C 2,8 C 96 % 15 lf 992,9 hPa 0,2 l/m 2 min 0 min 203 W/m 18,0 km/h (3 Bft) 91,49 %
16.01.2018 14:26 3,8 C 8,9 C 2,8 C 96 % 15 lf 993,0 hPa 0,0 l/m 2 min 0 min 198 W/m 18,0 km/h (3 Bft) 97,83 %
16.01.2018 14:28 3,9 C 8,9 C 3,3 C 96 % 15 lf 993,0 hPa 0,0 l/m 2 min 0 min 207 W/m 24,8 km/h (4 Bft) 97,87 %
16.01.2018 14:30 3,9 C 8,9 C 3,3 C 96 % 15 lf 993,0 hPa 0,0 l/m 2 min 0 min 221 W/m 15,8 km/h (3 Bft) 97,87 %
16.01.2018 14:32 4,0 C 8,9 C 3,3 C 96 % 15 lf 992,9 hPa 0,0 l/m 2 min 0 min 224 W/m 15,8 km/h (3 Bft) 95,74 %
16.01.2018 14:34 4,1 C 8,9 C 3,3 C 96 % 15 lf 993,0 hPa 0,0 l/m 2 min 0 min 242 W/m 22,5 km/h (4 Bft) 93,62 %
16.01.2018 14:36 4,2 C 9,4 C 3,9 C 96 % 15 lf 993,0 hPa 0,0 l/m 2 min 0 min 249 W/m 20,3 km/h (4 Bft) 97,87 %
16.01.2018 14:38 4,2 C 7,2 C 3,9 C 96 % 15 lf 993,1 hPa 0,0 l/m 2 min 0 min 187 W/m 24,8 km/h (4 Bft) 97,83 %
16.01.2018 14:40 4,3 C 6,7 C 3,9 C 96 % 15 lf 993,1 hPa 0,0 l/m 2 min 0 min 188 W/m 22,5 km/h (4 Bft) 95,74 %
16.01.2018 14:42 4,3 C 6,1 C 3,9 C 96 % 15 lf 993,1 hPa 0,2 l/m 2 min 0 min 176 W/m 20,3 km/h (4 Bft) 97,87 %
16.01.2018 14:44 4,4 C 5,6 C 3,9 C 96 % 15 lf 993,2 hPa 0,0 l/m 0 min 0 min 93 W/m 22,5 km/h (4 Bft) 97,87 %
16.01.2018 14:46 4,4 C 5,0 C 3,3 C 96 % 15 lf 993,2 hPa 0,0 l/m 0 min 0 min 58 W/m 20,3 km/h (4 Bft) 95,74 %
16.01.2018 14:48 4,4 C 4,4 C 3,3 C 96 % 15 lf 993,2 hPa 0,0 l/m 0 min 0 min 34 W/m 24,8 km/h (4 Bft) 95,74 %
16.01.2018 14:50 4,4 C 4,4 C 2,8 C 96 % 15 lf 993,2 hPa 0,0 l/m 0 min 2 min 19 W/m 15,8 km/h (3 Bft) 94,29 %
16.01.2018 14:52 4,4 C 4,4 C 2,8 C 96 % 15 lf 993,2 hPa 0,0 l/m 0 min 2 min 15 W/m 13,5 km/h (3 Bft) 98,31 %
16.01.2018 14:54 4,4 C 3,9 C 2,8 C 95 % 15 lf 993,2 hPa 0,0 l/m 0 min 2 min 14 W/m 22,5 km/h (4 Bft) 93,48 %
16.01.2018 14:56 4,4 C 3,9 C 2,8 C 95 % 15 lf 993,3 hPa 0,2 l/m 0 min 2 min 12 W/m 13,5 km/h (3 Bft) 97,87 %
16.01.2018 14:58 4,4 C 3,9 C 2,2 C 95 % 15 lf 993,4 hPa 0,0 l/m 0 min 2 min 14 W/m 22,5 km/h (4 Bft) 95,74 %
16.01.2018 15:00 4,4 C 3,9 C 2,2 C 95 % 15 lf 993,4 hPa 0,0 l/m 0 min 2 min 19 W/m 13,5 km/h (3 Bft) 95,74 %
16.01.2018 15:02 4,4 C 3,9 C 2,2 C 95 % 15 lf 993,3 hPa 0,0 l/m 0 min 2 min 41 W/m 6,8 km/h (2 Bft) 95,74 %
16.01.2018 15:04 4,3 C 3,9 C 2,8 C 95 % 15 lf 993,4 hPa 0,0 l/m 2 min 2 min 118 W/m 18,0 km/h (3 Bft) 93,62 %
16.01.2018 15:06 4,3 C 3,9 C 2,8 C 94 % 15 lf 993,3 hPa 0,0 l/m 0 min 0 min 110 W/m 24,8 km/h (4 Bft) 97,83 %
16.01.2018 15:08 4,3 C 3,9 C 2,2 C 94 % 15 lf 993,3 hPa 0,2 l/m 0 min 0 min 48 W/m 20,3 km/h (4 Bft) 95,74 %
16.01.2018 15:10 4,3 C 3,9 C 2,2 C 94 % 15 lf 993,5 hPa 0,0 l/m 0 min 0 min 67 W/m 24,8 km/h (4 Bft) 95,74 %
16.01.2018 15:12 4,3 C 3,9 C 2,2 C 94 % 15 lf 993,5 hPa 0,0 l/m 0 min 0 min 68 W/m 24,8 km/h (4 Bft) 95,74 %
16.01.2018 15:14 4,2 C 3,9 C 2,2 C 94 % 15 lf 993,4 hPa 0,0 l/m 0 min 2 min 56 W/m 29,3 km/h (5 Bft) 93,62 %
16.01.2018 15:16 4,2 C 3,3 C 2,2 C 93 % 15 lf 993,5 hPa 0,0 l/m 0 min 2 min 45 W/m 29,3 km/h (5 Bft) 93,62 %
16.01.2018 15:18 4,2 C 3,3 C 2,2 C 93 % 15 lf 993,6 hPa 0,0 l/m 0 min 2 min 33 W/m 27,0 km/h (4 Bft) 91,30 %
16.01.2018 15:20 4,2 C 3,3 C 2,2 C 93 % 15 lf 993,8 hPa 0,0 l/m 0 min 2 min 29 W/m 29,3 km/h (5 Bft) 93,62 %
16.01.2018 15:22 4,1 C 3,3 C 2,2 C 92 % 15 lf 993,7 hPa 0,0 l/m 0 min 2 min 14 W/m 42,8 km/h (6 Bft) 91,49 %
16.01.2018 15:24 4,1 C 3,3 C 2,2 C 92 % 15 lf 993,9 hPa 0,0 l/m 0 min 2 min 9 W/m 63,1 km/h (8 Bft) 93,62 %
16.01.2018 15:26 4,1 C 3,3 C 1,7 C 92 % 15 lf 993,8 hPa 0,0 l/m 0 min 2 min 10 W/m 60,8 km/h (7 Bft) 91,49 %
16.01.2018 15:28 4,0 C 2,8 C 1,7 C 91 % 15 lf 993,9 hPa 0,0 l/m 0 min 2 min 12 W/m 47,3 km/h (6 Bft) 97,87 %
16.01.2018 15:30 3,9 C 2,8 C 1,7 C 90 % 15 lf 993,8 hPa 0,2 l/m 0 min 2 min 13 W/m 51,8 km/h (7 Bft) 95,65 %
16.01.2018 15:32 3,8 C 2,8 C 1,7 C 90 % 15 lf 993,8 hPa 0,0 l/m 0 min 2 min 12 W/m 47,3 km/h (6 Bft) 93,62 %
16.01.2018 15:34 3,8 C 2,8 C 1,7 C 90 % 15 lf 993,7 hPa 0,0 l/m 0 min 2 min 18 W/m 42,8 km/h (6 Bft) 97,87 %
16.01.2018 15:36 3,7 C 2,8 C 1,7 C 90 % 15 lf 993,7 hPa 0,0 l/m 0 min 2 min 29 W/m 33,8 km/h (5 Bft) 93,62 %
16.01.2018 15:38 3,6 C 2,8 C 1,7 C 90 % 15 lf 993,4 hPa 0,0 l/m 0 min 2 min 53 W/m 31,5 km/h (5 Bft) 95,74 %
16.01.2018 15:40 3,6 C 2,8 C 1,7 C 90 % 15 lf 993,4 hPa 0,0 l/m 0 min 2 min 63 W/m 31,5 km/h (5 Bft) 97,83 %
16.01.2018 15:42 3,5 C 2,8 C 1,1 C 90 % 15 lf 993,5 hPa 0,0 l/m 0 min 2 min 45 W/m 40,6 km/h (6 Bft) 95,74 %
16.01.2018 15:44 3,5 C 2,8 C 1,1 C 90 % 15 lf 993,5 hPa 0,0 l/m 0 min 2 min 40 W/m 33,8 km/h (5 Bft) 97,87 %
16.01.2018 15:46 3,4 C 2,8 C 1,1 C 90 % 15 lf 993,6 hPa 0,2 l/m 0 min 2 min 44 W/m 33,8 km/h (5 Bft) 97,92 %
16.01.2018 15:48 3,4 C 2,8 C 1,1 C 90 % 15 lf 993,5 hPa 0,0 l/m 0 min 2 min 37 W/m 36,0 km/h (5 Bft) 93,62 %
16.01.2018 15:50 3,3 C 2,2 C 1,1 C 90 % 15 lf 993,5 hPa 0,0 l/m 0 min 0 min 30 W/m 22,5 km/h (4 Bft) 97,87 %
16.01.2018 15:52 3,3 C 2,2 C 1,1 C 90 % 15 lf 993,6 hPa 0,0 l/m 0 min 2 min 24 W/m 29,3 km/h (5 Bft) 95,65 %
16.01.2018 15:54 3,3 C 2,2 C 1,1 C 90 % 15 lf 993,5 hPa 0,0 l/m 0 min 0 min 25 W/m 31,5 km/h (5 Bft) 95,74 %
16.01.2018 15:56 3,2 C 2,2 C 1,1 C 91 % 15 lf 993,4 hPa 0,0 l/m 0 min 0 min 29 W/m 20,3 km/h (4 Bft) 97,87 %
16.01.2018 15:58 3,2 C 2,8 C 1,1 C 91 % 15 lf 993,5 hPa 0,0 l/m 0 min 2 min 41 W/m 22,5 km/h (4 Bft) 97,87 %
16.01.2018 16:00 3,2 C 2,8 C 1,1 C 91 % 15 lf 993,6 hPa 0,0 l/m 0 min 0 min 38 W/m 22,5 km/h (4 Bft) 97,87 %
16.01.2018 16:02 3,2 C 2,8 C 1,1 C 91 % 15 lf 993,6 hPa 0,0 l/m 0 min 2 min 36 W/m 22,5 km/h (4 Bft) 95,74 %
16.01.2018 16:04 3,2 C 2,8 C 1,1 C 91 % 15 lf 993,6 hPa 0,0 l/m 0 min 2 min 39 W/m 20,3 km/h (4 Bft) 97,83 %
16.01.2018 16:06 3,2 C 2,8 C 1,1 C 91 % 15 lf 993,6 hPa 0,0 l/m 0 min 0 min 43 W/m 15,8 km/h (3 Bft) 100,00 %
16.01.2018 16:08 3,2 C 2,8 C 1,7 C 91 % 15 lf 993,7 hPa 0,0 l/m 0 min 0 min 46 W/m 20,3 km/h (4 Bft) 97,87 %
16.01.2018 16:10 3,2 C 2,8 C 1,7 C 91 % 15 lf 993,7 hPa 0,0 l/m 0 min 0 min 47 W/m 18,0 km/h (3 Bft) 100,00 %
16.01.2018 16:12 3,2 C 2,8 C 1,7 C 91 % 15 lf 993,8 hPa 0,0 l/m 2 min 0 min 47 W/m 15,8 km/h (3 Bft) 100,00 %
16.01.2018 16:14 3,2 C 2,8 C 1,7 C 91 % 15 lf 993,8 hPa 0,0 l/m 0 min 0 min 38 W/m 15,8 km/h (3 Bft) 100,00 %
16.01.2018 16:16 3,2 C 2,8 C 1,7 C 92 % 15 lf 993,9 hPa 0,0 l/m 0 min 0 min 17 W/m 18,0 km/h (3 Bft) 95,65 %
16.01.2018 16:18 3,3 C 2,8 C 1,1 C 92 % 15 lf 994,0 hPa 0,0 l/m 0 min 2 min 8 W/m 22,5 km/h (4 Bft) 97,87 %
16.01.2018 16:20 3,3 C 2,8 C 1,1 C 92 % 15 lf 994,1 hPa 0,0 l/m 0 min 2 min 14 W/m 24,8 km/h (4 Bft) 96,61 %
16.01.2018 16:22 3,3 C 2,8 C 1,1 C 92 % 15 lf 994,1 hPa 0,0 l/m 0 min 2 min 32 W/m 29,3 km/h (5 Bft) 94,29 %
16.01.2018 16:24 3,3 C 2,8 C 1,1 C 92 % 15 lf 994,0 hPa 0,0 l/m 0 min 2 min 29 W/m 24,8 km/h (4 Bft) 97,87 %
16.01.2018 16:26 3,3 C 2,8 C 1,1 C 92 % 15 lf 994,0 hPa 0,0 l/m 0 min 2 min 19 W/m 31,5 km/h (5 Bft) 95,74 %
16.01.2018 16:28 3,2 C 2,8 C 1,1 C 92 % 15 lf 993,9 hPa 0,0 l/m 0 min 2 min 14 W/m 33,8 km/h (5 Bft) 97,83 %
16.01.2018 16:30 3,2 C 2,8 C 1,1 C 92 % 15 lf 993,9 hPa 0,0 l/m 0 min 0 min 13 W/m 31,5 km/h (5 Bft) 95,74 %
16.01.2018 16:32 3,2 C 2,8 C 1,1 C 92 % 15 lf 993,9 hPa 0,0 l/m 0 min 0 min 12 W/m 24,8 km/h (4 Bft) 95,83 %
16.01.2018 16:34 3,2 C 2,8 C 1,1 C 92 % 15 lf 993,8 hPa 0,0 l/m 0 min 0 min 12 W/m 22,5 km/h (4 Bft) 97,87 %
16.01.2018 16:36 3,2 C 2,8 C 1,1 C 92 % 15 lf 993,9 hPa 0,0 l/m 0 min 0 min 11 W/m 20,3 km/h (4 Bft) 95,74 %
16.01.2018 16:38 3,1 C 2,8 C 1,1 C 92 % 15 lf 993,9 hPa 0,2 l/m 0 min 0 min 11 W/m 18,0 km/h (3 Bft) 97,83 %
16.01.2018 16:40 3,1 C 2,2 C 1,1 C 92 % 15 lf 993,9 hPa 0,0 l/m 0 min 0 min 11 W/m 31,5 km/h (5 Bft) 93,62 %
16.01.2018 16:42 3,1 C 2,2 C 1,1 C 92 % 15 lf 993,9 hPa 0,0 l/m 0 min 0 min 9 W/m 22,5 km/h (4 Bft) 97,87 %
16.01.2018 16:44 3,1 C 2,8 C 1,1 C 92 % 15 lf 994,0 hPa 0,0 l/m 0 min 0 min 9 W/m 24,8 km/h (4 Bft) 95,74 %
16.01.2018 16:46 3,1 C 2,8 C 1,1 C 92 % 15 lf 993,9 hPa 0,0 l/m 0 min 0 min 7 W/m 15,8 km/h (3 Bft) 97,87 %
16.01.2018 16:48 3,1 C 2,8 C 0,6 C 92 % 15 lf 994,0 hPa 0,0 l/m 0 min 0 min 7 W/m 20,3 km/h (4 Bft) 97,87 %
16.01.2018 16:50 3,1 C 2,8 C 1,1 C 92 % 15 lf 994,0 hPa 0,0 l/m 0 min 0 min 7 W/m 20,3 km/h (4 Bft) 95,74 %
16.01.2018 16:52 3,1 C 2,8 C 0,6 C 92 % 15 lf 994,1 hPa 0,0 l/m 0 min 0 min 5 W/m 13,5 km/h (3 Bft) 95,56 %
16.01.2018 16:54 3,1 C 2,2 C 0,6 C 92 % 15 lf 994,1 hPa 0,0 l/m 0 min 0 min 5 W/m 9,0 km/h (2 Bft) 95,74 %
16.01.2018 16:56 3,0 C 2,2 C 0,6 C 92 % 15 lf 994,1 hPa 0,0 l/m 0 min 0 min 5 W/m 11,3 km/h (2 Bft) 97,87 %
16.01.2018 16:58 3,0 C 2,8 C 0,6 C 92 % 15 lf 994,1 hPa 0,0 l/m 0 min 0 min 5 W/m 15,8 km/h (3 Bft) 95,65 %
16.01.2018 17:00 3,0 C 2,8 C 1,1 C 92 % 15 lf 994,1 hPa 0,0 l/m 0 min 0 min 2 W/m 18,0 km/h (3 Bft) 93,62 %
16.01.2018 17:02 3,0 C 2,8 C 1,1 C 92 % 15 lf 994,0 hPa 0,0 l/m 0 min 0 min 0 W/m 15,8 km/h (3 Bft) 91,49 %
16.01.2018 17:04 3,0 C 2,8 C 1,1 C 92 % 15 lf 994,0 hPa 0,0 l/m 0 min 0 min 0 W/m 11,3 km/h (2 Bft) 95,74 %
16.01.2018 17:06 3,0 C 2,8 C 1,1 C 92 % 15 lf 994,1 hPa 0,0 l/m 0 min 0 min 0 W/m 9,0 km/h (2 Bft) 95,74 %
16.01.2018 17:08 3,0 C 2,8 C 1,1 C 92 % 15 lf 994,0 hPa 0,0 l/m 0 min 0 min 0 W/m 9,0 km/h (2 Bft) 93,48 %
16.01.2018 17:10 3,0 C 2,8 C 1,1 C 92 % 15 lf 994,3 hPa 0,0 l/m 0 min 0 min 0 W/m 18,0 km/h (3 Bft) 93,62 %
16.01.2018 17:12 3,0 C 2,8 C 1,1 C 92 % 15 lf 994,8 hPa 0,0 l/m 0 min 0 min 0 W/m 27,0 km/h (4 Bft) 93,62 %
16.01.2018 17:14 3,0 C 2,8 C 1,1 C 92 % 15 lf 994,8 hPa 0,0 l/m 0 min 2 min 0 W/m 45,1 km/h (6 Bft) 95,74 %
16.01.2018 17:16 3,0 C 2,2 C 0,0 C 92 % 15 lf 994,8 hPa 0,0 l/m 0 min 2 min 0 W/m 38,3 km/h (5 Bft) 95,74 %
16.01.2018 17:18 2,9 C 2,2 C -0,6 C 92 % 15 lf 994,7 hPa 0,0 l/m 0 min 2 min 0 W/m 45,1 km/h (6 Bft) 93,62 %
16.01.2018 17:20 2,8 C 1,7 C 0,0 C 92 % 15 lf 994,8 hPa 0,0 l/m 0 min 2 min 0 W/m 33,8 km/h (5 Bft) 91,38 %
16.01.2018 17:22 2,7 C 1,7 C 0,0 C 92 % 15 lf 994,7 hPa 0,2 l/m 0 min 2 min 0 W/m 29,3 km/h (5 Bft) 91,43 %
16.01.2018 17:24 2,6 C 1,7 C 0,0 C 92 % 15 lf 994,7 hPa 0,0 l/m 0 min 2 min 0 W/m 31,5 km/h (5 Bft) 93,62 %
16.01.2018 17:26 2,5 C 1,7 C 0,0 C 92 % 15 lf 994,6 hPa 0,2 l/m 0 min 2 min 0 W/m 38,3 km/h (5 Bft) 97,87 %
16.01.2018 17:28 2,4 C 1,7 C 0,0 C 92 % 15 lf 994,3 hPa 0,0 l/m 0 min 2 min 0 W/m 33,8 km/h (5 Bft) 95,74 %
16.01.2018 17:30 2,4 C 1,7 C 0,6 C 92 % 15 lf 994,1 hPa 0,0 l/m 0 min 2 min 0 W/m 24,8 km/h (4 Bft) 93,62 %
16.01.2018 17:32 2,3 C 1,7 C 0,6 C 92 % 15 lf 994,0 hPa 0,2 l/m 0 min 2 min 0 W/m 27,0 km/h (4 Bft) 97,83 %
16.01.2018 17:34 2,3 C 1,7 C 0,6 C 92 % 15 lf 994,0 hPa 0,0 l/m 0 min 2 min 0 W/m 24,8 km/h (4 Bft) 95,74 %
16.01.2018 17:36 2,3 C 1,7 C 0,6 C 92 % 15 lf 994,0 hPa 0,0 l/m 0 min 2 min 0 W/m 20,3 km/h (4 Bft) 97,87 %
16.01.2018 17:38 2,3 C 1,7 C 0,6 C 92 % 15 lf 993,9 hPa 0,0 l/m 0 min 0 min 0 W/m 24,8 km/h (4 Bft) 95,74 %
16.01.2018 17:40 2,3 C 1,7 C 0,6 C 93 % 15 lf 993,9 hPa 0,2 l/m 0 min 0 min 0 W/m 22,5 km/h (4 Bft) 91,49 %
16.01.2018 17:42 2,3 C 1,1 C 0,0 C 93 % 15 lf 994,0 hPa 0,0 l/m 0 min 0 min 0 W/m 20,3 km/h (4 Bft) 91,49 %
16.01.2018 17:44 2,2 C 1,1 C 0,6 C 93 % 15 lf 994,1 hPa 0,0 l/m 0 min 0 min 0 W/m 22,5 km/h (4 Bft) 97,83 %
16.01.2018 17:46 2,2 C 1,1 C 0,6 C 93 % 15 lf 994,1 hPa 0,0 l/m 0 min 0 min 0 W/m 15,8 km/h (3 Bft) 97,87 %
16.01.2018 17:48 2,2 C 1,1 C 0,6 C 93 % 15 lf 994,3 hPa 0,0 l/m 0 min 0 min 0 W/m 11,3 km/h (2 Bft) 95,74 %
16.01.2018 17:50 2,2 C 1,1 C 0,6 C 93 % 15 lf 994,3 hPa 0,0 l/m 0 min 0 min 0 W/m 18,0 km/h (3 Bft) 98,31 %
16.01.2018 17:52 2,2 C 1,1 C 0,6 C 93 % 15 lf 994,3 hPa 0,0 l/m 0 min 0 min 0 W/m 9,0 km/h (2 Bft) 94,59 %
16.01.2018 17:54 2,2 C 1,7 C 0,6 C 93 % 15 lf 994,3 hPa 0,0 l/m 0 min 0 min 0 W/m 18,0 km/h (3 Bft) 95,74 %
16.01.2018 17:56 2,1 C 1,7 C 0,6 C 93 % 15 lf 994,2 hPa 0,0 l/m 0 min 0 min 0 W/m 13,5 km/h (3 Bft) 97,87 %
16.01.2018 17:58 2,1 C 1,7 C 0,6 C 93 % 15 lf 994,2 hPa 0,0 l/m 0 min 0 min 0 W/m 20,3 km/h (4 Bft) 95,74 %
16.01.2018 18:00 2,1 C 1,1 C 0,6 C 93 % 15 lf 994,2 hPa 0,0 l/m 0 min 0 min 0 W/m 9,0 km/h (2 Bft) 97,83 %
16.01.2018 18:02 2,1 C 1,1 C 0,0 C 93 % 15 lf 994,1 hPa 0,0 l/m 0 min 0 min 0 W/m 11,3 km/h (2 Bft) 97,87 %
16.01.2018 18:04 2,1 C 1,1 C 0,0 C 93 % 15 lf 994,1 hPa 0,0 l/m 0 min 0 min 0 W/m 11,3 km/h (2 Bft) 100,00 %
16.01.2018 18:06 2,1 C 1,1 C 0,0 C 93 % 15 lf 994,1 hPa 0,0 l/m 0 min 0 min 0 W/m 15,8 km/h (3 Bft) 95,74 %
16.01.2018 18:08 2,1 C 1,1 C 0,0 C 93 % 15 lf 994,1 hPa 0,0 l/m 0 min 0 min 0 W/m 11,3 km/h (2 Bft) 100,00 %
16.01.2018 18:10 2,1 C 1,1 C 0,0 C 93 % 15 lf 994,1 hPa 0,0 l/m 0 min 0 min 0 W/m 11,3 km/h (2 Bft) 95,74 %
16.01.2018 18:12 2,0 C 1,1 C 0,0 C 93 % 15 lf 994,1 hPa 0,0 l/m 0 min 0 min 0 W/m 13,5 km/h (3 Bft) 95,65 %
16.01.2018 18:14 2,0 C 1,1 C 0,0 C 93 % 15 lf 994,1 hPa 0,0 l/m 0 min 0 min 0 W/m 9,0 km/h (2 Bft) 97,87 %
16.01.2018 18:16 1,9 C 0,6 C -0,6 C 93 % 15 lf 993,9 hPa 0,0 l/m 0 min 0 min 0 W/m 6,8 km/h (2 Bft) 97,87 %
16.01.2018 18:18 1,9 C 1,1 C 0,0 C 93 % 15 lf 994,0 hPa 0,0 l/m 0 min 0 min 0 W/m 11,3 km/h (2 Bft) 95,74 %
16.01.2018 18:20 1,9 C 0,6 C -0,6 C 93 % 15 lf 993,9 hPa 0,0 l/m 0 min 0 min 0 W/m 9,0 km/h (2 Bft) 97,87 %
16.01.2018 18:22 1,9 C 0,6 C -0,6 C 93 % 15 lf 994,0 hPa 0,0 l/m 0 min 0 min 0 W/m 11,3 km/h (2 Bft) 97,87 %
16.01.2018 18:24 1,9 C 0,6 C -0,6 C 93 % 15 lf 993,9 hPa 0,0 l/m 0 min 0 min 0 W/m 9,0 km/h (2 Bft) 95,65 %
16.01.2018 18:26 1,8 C 0,6 C -0,6 C 93 % 15 lf 993,9 hPa 0,0 l/m 0 min 0 min 0 W/m 9,0 km/h (2 Bft) 97,87 %
16.01.2018 18:28 1,8 C 0,6 C -0,6 C 93 % 15 lf 993,9 hPa 0,0 l/m 0 min 0 min 0 W/m 9,0 km/h (2 Bft) 97,87 %
16.01.2018 18:30 1,8 C 0,6 C -0,6 C 93 % 15 lf 993,9 hPa 0,0 l/m 0 min 0 min 0 W/m 9,0 km/h (2 Bft) 97,87 %
16.01.2018 18:32 1,8 C 1,1 C -0,6 C 93 % 15 lf 993,9 hPa 0,0 l/m 0 min 0 min 0 W/m 9,0 km/h (2 Bft) 97,87 %
16.01.2018 18:34 1,8 C 1,1 C 0,0 C 93 % 15 lf 993,9 hPa 0,0 l/m 0 min 0 min 0 W/m 15,8 km/h (3 Bft) 97,83 %
16.01.2018 18:36 1,8 C 1,1 C 0,0 C 93 % 15 lf 993,8 hPa 0,0 l/m 0 min 0 min 0 W/m 18,0 km/h (3 Bft) 95,74 %
16.01.2018 18:38 1,8 C 1,1 C 0,0 C 93 % 15 lf 993,8 hPa 0,0 l/m 0 min 0 min 0 W/m 13,5 km/h (3 Bft) 91,49 %
16.01.2018 18:40 1,8 C 1,1 C 0,0 C 93 % 15 lf 993,8 hPa 0,0 l/m 0 min 0 min 0 W/m 13,5 km/h (3 Bft) 93,62 %
16.01.2018 18:42 1,8 C 1,1 C 0,0 C 94 % 15 lf 993,8 hPa 0,0 l/m 0 min 0 min 0 W/m 11,3 km/h (2 Bft) 95,74 %
16.01.2018 18:44 1,7 C 1,1 C 0,0 C 94 % 15 lf 993,7 hPa 0,0 l/m 0 min 0 min 0 W/m 18,0 km/h (3 Bft) 95,74 %
16.01.2018 18:46 1,8 C 1,1 C 0,0 C 94 % 15 lf 993,7 hPa 0,0 l/m 0 min 0 min 0 W/m 13,5 km/h (3 Bft) 95,65 %
16.01.2018 18:48 1,8 C 1,1 C 0,0 C 94 % 15 lf 993,7 hPa 0,0 l/m 0 min 0 min 0 W/m 13,5 km/h (3 Bft) 95,74 %
16.01.2018 18:50 1,7 C 1,1 C 0,0 C 94 % 15 lf 993,6 hPa 0,0 l/m 0 min 0 min 0 W/m 15,8 km/h (3 Bft) 93,62 %
16.01.2018 18:52 1,7 C 1,1 C 0,0 C 94 % 15 lf 993,6 hPa 0,0 l/m 0 min 0 min 0 W/m 13,5 km/h (3 Bft) 93,62 %
16.01.2018 18:54 1,8 C 1,1 C 0,0 C 94 % 15 lf 993,6 hPa 0,0 l/m 0 min 0 min 0 W/m 15,8 km/h (3 Bft) 93,62 %
16.01.2018 18:56 1,8 C 1,1 C 0,0 C 94 % 15 lf 993,6 hPa 0,0 l/m 0 min 0 min 0 W/m 15,8 km/h (3 Bft) 95,74 %
16.01.2018 18:58 1,8 C 1,1 C 0,0 C 94 % 15 lf 993,7 hPa 0,0 l/m 0 min 0 min 0 W/m 20,3 km/h (4 Bft) 91,30 %
16.01.2018 19:00 1,8 C 1,1 C 0,0 C 94 % 15 lf 993,7 hPa 0,0 l/m 0 min 0 min 0 W/m 18,0 km/h (3 Bft) 97,87 %
16.01.2018 19:02 1,8 C 1,1 C 0,0 C 94 % 15 lf 993,8 hPa 0,0 l/m 0 min 0 min 0 W/m 15,8 km/h (3 Bft) 91,49 %
16.01.2018 19:04 1,8 C 1,1 C 0,0 C 94 % 15 lf 993,7 hPa 0,0 l/m 0 min 0 min 0 W/m 15,8 km/h (3 Bft) 97,87 %
16.01.2018 19:06 1,8 C 1,1 C 0,0 C 94 % 15 lf 993,7 hPa 0,0 l/m 0 min 0 min 0 W/m 15,8 km/h (3 Bft) 95,74 %
16.01.2018 19:08 1,8 C 1,1 C 0,0 C 94 % 15 lf 993,7 hPa 0,0 l/m 0 min 0 min 0 W/m 11,3 km/h (2 Bft) 97,87 %
16.01.2018 19:10 1,8 C 1,1 C 0,0 C 94 % 15 lf 993,8 hPa 0,0 l/m 0 min 0 min 0 W/m 15,8 km/h (3 Bft) 97,83 %
16.01.2018 19:12 1,8 C 1,1 C 0,0 C 94 % 15 lf 993,7 hPa 0,0 l/m 0 min 0 min 0 W/m 11,3 km/h (2 Bft) 97,87 %
16.01.2018 19:14 1,8 C 1,1 C 0,0 C 94 % 15 lf 993,7 hPa 0,0 l/m 0 min 0 min 0 W/m 18,0 km/h (3 Bft) 100,00 %
16.01.2018 19:16 1,8 C 1,1 C 0,0 C 94 % 15 lf 993,7 hPa 0,0 l/m 0 min 0 min 0 W/m 15,8 km/h (3 Bft) 95,74 %
16.01.2018 19:18 1,8 C 1,1 C 0,0 C 94 % 15 lf 993,7 hPa 0,0 l/m 0 min 0 min 0 W/m 11,3 km/h (2 Bft) 100,00 %
16.01.2018 19:20 1,8 C 1,1 C 0,0 C 94 % 15 lf 993,6 hPa 0,0 l/m 0 min 0 min 0 W/m 18,0 km/h (3 Bft) 95,74 %
16.01.2018 19:22 1,8 C 1,1 C 0,0 C 94 % 15 lf 993,6 hPa 0,0 l/m 0 min 0 min 0 W/m 13,5 km/h (3 Bft) 100,00 %
16.01.2018 19:24 1,8 C 1,1 C 0,0 C 94 % 15 lf 993,6 hPa 0,0 l/m 0 min 0 min 0 W/m 15,8 km/h (3 Bft) 100,00 %
16.01.2018 19:26 1,8 C 1,1 C 0,0 C 94 % 15 lf 993,6 hPa 0,0 l/m 0 min 0 min 0 W/m 15,8 km/h (3 Bft) 100,00 %
16.01.2018 19:28 1,8 C 1,1 C 0,0 C 95 % 15 lf 993,6 hPa 0,0 l/m 0 min 0 min 0 W/m 13,5 km/h (3 Bft) 100,00 %
16.01.2018 19:30 1,8 C 1,1 C 0,0 C 95 % 15 lf 993,6 hPa 0,0 l/m 0 min 0 min 0 W/m 13,5 km/h (3 Bft) 100,00 %
16.01.2018 19:32 1,8 C 1,1 C 0,0 C 95 % 15 lf 993,6 hPa 0,0 l/m 0 min 0 min 0 W/m 15,8 km/h (3 Bft) 100,00 %
16.01.2018 19:34 1,8 C 1,1 C 0,0 C 95 % 15 lf 993,6 hPa 0,0 l/m 0 min 0 min 0 W/m 11,3 km/h (2 Bft) 100,00 %
16.01.2018 19:36 1,8 C 1,1 C 0,0 C 95 % 15 lf 993,6 hPa 0,0 l/m 0 min 0 min 0 W/m 11,3 km/h (2 Bft) 100,00 %
16.01.2018 19:38 1,8 C 1,1 C -0,6 C 95 % 15 lf 993,6 hPa 0,0 l/m 0 min 0 min 0 W/m 11,3 km/h (2 Bft) 100,00 %
16.01.2018 19:40 1,8 C 1,1 C -0,6 C 95 % 15 lf 993,6 hPa 0,0 l/m 0 min 0 min 0 W/m 11,3 km/h (2 Bft) 97,87 %
16.01.2018 19:42 1,8 C 1,1 C -0,6 C 95 % 15 lf 993,6 hPa 0,0 l/m 0 min 0 min 0 W/m 11,3 km/h (2 Bft) 100,00 %
16.01.2018 19:44 1,8 C 1,1 C -0,6 C 95 % 15 lf 993,5 hPa 0,0 l/m 0 min 0 min 0 W/m 11,3 km/h (2 Bft) 97,83 %
16.01.2018 19:46 1,8 C 1,1 C -0,6 C 95 % 15 lf 993,5 hPa 0,0 l/m 0 min 0 min 0 W/m 11,3 km/h (2 Bft) 100,00 %
16.01.2018 19:48 1,8 C 1,1 C -0,6 C 95 % 15 lf 993,5 hPa 0,0 l/m 0 min 0 min 0 W/m 11,3 km/h (2 Bft) 97,87 %
16.01.2018 19:50 1,8 C 1,1 C -0,6 C 95 % 15 lf 993,5 hPa 0,0 l/m 0 min 0 min 0 W/m 11,3 km/h (2 Bft) 97,87 %
16.01.2018 19:52 1,7 C 1,1 C -0,6 C 95 % 15 lf 993,5 hPa 0,0 l/m 0 min 0 min 0 W/m 15,8 km/h (3 Bft) 97,87 %
16.01.2018 19:54 1,7 C 1,1 C -0,6 C 94 % 15 lf 993,4 hPa 0,0 l/m 0 min 0 min 0 W/m 9,0 km/h (2 Bft) 97,87 %
16.01.2018 19:56 1,7 C 1,1 C -0,6 C 94 % 15 lf 993,4 hPa 0,0 l/m 0 min 0 min 0 W/m 13,5 km/h (3 Bft) 97,83 %
16.01.2018 19:58 1,7 C 1,1 C -0,6 C 94 % 15 lf 993,5 hPa 0,0 l/m 0 min 0 min 0 W/m 15,8 km/h (3 Bft) 97,87 %
16.01.2018 20:00 1,8 C 1,1 C 0,0 C 94 % 15 lf 993,6 hPa 0,0 l/m 0 min 0 min 0 W/m 13,5 km/h (3 Bft) 97,87 %
16.01.2018 20:02 1,8 C 1,1 C 0,0 C 95 % 15 lf 993,6 hPa 0,0 l/m 0 min 0 min 0 W/m 15,8 km/h (3 Bft) 93,62 %
16.01.2018 20:04 1,8 C 1,1 C 0,0 C 95 % 15 lf 993,6 hPa 0,0 l/m 0 min 0 min 0 W/m 15,8 km/h (3 Bft) 95,74 %
16.01.2018 20:06 1,8 C 1,1 C 0,0 C 95 % 15 lf 993,7 hPa 0,0 l/m 0 min 0 min 0 W/m 20,3 km/h (4 Bft) 95,74 %
16.01.2018 20:08 1,8 C 1,1 C 0,0 C 95 % 15 lf 993,6 hPa 0,0 l/m 0 min 0 min 0 W/m 15,8 km/h (3 Bft) 97,83 %
16.01.2018 20:10 1,8 C 1,1 C 0,0 C 95 % 15 lf 993,6 hPa 0,0 l/m 0 min 0 min 0 W/m 15,8 km/h (3 Bft) 97,87 %
16.01.2018 20:12 1,8 C 1,1 C 0,0 C 95 % 15 lf 993,6 hPa 0,0 l/m 0 min 0 min 0 W/m 20,3 km/h (4 Bft) 97,87 %
16.01.2018 20:14 1,8 C 1,7 C 0,0 C 95 % 15 lf 993,5 hPa 0,0 l/m 0 min 0 min 0 W/m 15,8 km/h (3 Bft) 97,87 %
16.01.2018 20:16 1,8 C 1,1 C 0,0 C 95 % 15 lf 993,6 hPa 0,0 l/m 0 min 0 min 0 W/m 13,5 km/h (3 Bft) 97,87 %
16.01.2018 20:18 1,8 C 1,1 C 0,0 C 95 % 15 lf 993,5 hPa 0,0 l/m 0 min 0 min 0 W/m 15,8 km/h (3 Bft) 95,65 %
16.01.2018 20:20 1,8 C 1,1 C 0,0 C 95 % 15 lf 993,5 hPa 0,0 l/m 0 min 0 min 0 W/m 15,8 km/h (3 Bft) 97,87 %
16.01.2018 20:22 1,9 C 1,1 C 0,0 C 95 % 15 lf 993,5 hPa 0,0 l/m 0 min 0 min 0 W/m 11,3 km/h (2 Bft) 95,74 %
16.01.2018 20:24 1,9 C 1,1 C 0,0 C 95 % 15 lf 993,5 hPa 0,0 l/m 0 min 0 min 0 W/m 15,8 km/h (3 Bft) 95,74 %
16.01.2018 20:26 1,8 C 1,1 C 0,0 C 95 % 15 lf 993,5 hPa 0,0 l/m 0 min 0 min 0 W/m 13,5 km/h (3 Bft) 97,87 %
16.01.2018 20:28 1,8 C 1,1 C 0,0 C 95 % 15 lf 993,3 hPa 0,0 l/m 0 min 0 min 0 W/m 15,8 km/h (3 Bft) 93,62 %
16.01.2018 20:30 1,8 C 1,1 C 0,0 C 95 % 15 lf 993,4 hPa 0,0 l/m 0 min 0 min 0 W/m 13,5 km/h (3 Bft) 97,83 %
16.01.2018 20:32 1,8 C 1,1 C 0,0 C 95 % 15 lf 993,4 hPa 0,0 l/m 0 min 0 min 0 W/m 13,5 km/h (3 Bft) 93,62 %
16.01.2018 20:34 1,8 C 1,1 C 0,0 C 95 % 15 lf 993,5 hPa 0,0 l/m 0 min 0 min 0 W/m 15,8 km/h (3 Bft) 91,49 %
16.01.2018 20:36 1,9 C 1,1 C 0,0 C 95 % 15 lf 993,5 hPa 0,0 l/m 0 min 0 min 0 W/m 13,5 km/h (3 Bft) 97,87 %
16.01.2018 20:38 1,9 C 1,7 C 0,0 C 95 % 15 lf 993,5 hPa 0,0 l/m 0 min 0 min 0 W/m 15,8 km/h (3 Bft) 93,62 %
16.01.2018 20:40 1,9 C 1,7 C 0,0 C 95 % 15 lf 993,4 hPa 0,0 l/m 0 min 0 min 0 W/m 11,3 km/h (2 Bft) 95,74 %
16.01.2018 20:42 1,9 C 1,7 C 0,0 C 95 % 15 lf 993,4 hPa 0,0 l/m 0 min 0 min 0 W/m 22,5 km/h (4 Bft) 95,65 %
16.01.2018 20:44 1,9 C 1,7 C 0,0 C 95 % 15 lf 993,3 hPa 0,0 l/m 0 min 0 min 0 W/m 15,8 km/h (3 Bft) 95,74 %
16.01.2018 20:46 1,9 C 1,7 C 0,0 C 95 % 15 lf 993,3 hPa 0,0 l/m 0 min 0 min 0 W/m 18,0 km/h (3 Bft) 95,74 %
16.01.2018 20:48 1,9 C 1,7 C 0,0 C 95 % 15 lf 993,2 hPa 0,0 l/m 0 min 0 min 0 W/m 15,8 km/h (3 Bft) 93,62 %
16.01.2018 20:50 1,9 C 1,7 C 0,0 C 95 % 15 lf 993,2 hPa 0,0 l/m 0 min 0 min 0 W/m 15,8 km/h (3 Bft) 95,74 %
16.01.2018 20:52 1,9 C 1,7 C 0,0 C 95 % 15 lf 993,2 hPa 0,0 l/m 0 min 0 min 0 W/m 18,0 km/h (3 Bft) 93,62 %
16.01.2018 20:54 1,9 C 1,7 C 0,0 C 95 % 15 lf 993,1 hPa 0,0 l/m 0 min 0 min 0 W/m 15,8 km/h (3 Bft) 95,65 %
16.01.2018 20:56 1,9 C 1,7 C 0,0 C 95 % 15 lf 993,1 hPa 0,0 l/m 0 min 0 min 0 W/m 18,0 km/h (3 Bft) 95,74 %
16.01.2018 20:58 1,9 C 1,7 C 0,0 C 95 % 15 lf 993,2 hPa 0,0 l/m 0 min 0 min 0 W/m 18,0 km/h (3 Bft) 95,74 %
16.01.2018 21:00 1,9 C 1,7 C 0,0 C 95 % 15 lf 993,1 hPa 0,0 l/m 0 min 0 min 0 W/m 15,8 km/h (3 Bft) 100,00 %
16.01.2018 21:02 1,9 C 1,7 C 0,0 C 94 % 15 lf 993,2 hPa 0,0 l/m 0 min 0 min 0 W/m 18,0 km/h (3 Bft) 95,74 %
16.01.2018 21:04 2,0 C 1,7 C 0,0 C 94 % 15 lf 993,2 hPa 0,0 l/m 0 min 0 min 0 W/m 18,0 km/h (3 Bft) 97,87 %
16.01.2018 21:06 2,0 C 1,7 C 0,0 C 94 % 15 lf 993,2 hPa 0,0 l/m 0 min 0 min 0 W/m 22,5 km/h (4 Bft) 97,83 %
16.01.2018 21:08 2,0 C 1,7 C 0,0 C 94 % 15 lf 993,1 hPa 0,0 l/m 0 min 0 min 0 W/m 18,0 km/h (3 Bft) 95,74 %
16.01.2018 21:10 2,1 C 1,7 C 0,0 C 94 % 15 lf 993,1 hPa 0,0 l/m 0 min 0 min 0 W/m 24,8 km/h (4 Bft) 95,74 %
16.01.2018 21:12 2,1 C 2,2 C 0,0 C 94 % 15 lf 993,0 hPa 0,0 l/m 0 min 0 min 0 W/m 27,0 km/h (4 Bft) 93,62 %
16.01.2018 21:14 2,1 C 2,2 C 0,0 C 94 % 15 lf 993,0 hPa 0,0 l/m 0 min 0 min 0 W/m 15,8 km/h (3 Bft) 91,49 %
16.01.2018 21:16 2,2 C 2,2 C 0,6 C 95 % 15 lf 993,0 hPa 0,0 l/m 0 min 0 min 0 W/m 18,0 km/h (3 Bft) 89,36 %
16.01.2018 21:18 2,2 C 2,2 C 0,6 C 94 % 15 lf 993,0 hPa 0,0 l/m 0 min 0 min 0 W/m 22,5 km/h (4 Bft) 95,65 %
16.01.2018 21:20 2,2 C 2,2 C 0,6 C 94 % 15 lf 993,1 hPa 0,0 l/m 0 min 0 min 0 W/m 20,3 km/h (4 Bft) 91,49 %
16.01.2018 21:22 2,3 C 2,2 C 0,6 C 94 % 15 lf 993,0 hPa 0,0 l/m 0 min 0 min 0 W/m 24,8 km/h (4 Bft) 93,62 %
16.01.2018 21:24 2,3 C 2,2 C 0,6 C 94 % 15 lf 993,0 hPa 0,0 l/m 0 min 0 min 0 W/m 24,8 km/h (4 Bft) 95,74 %
16.01.2018 21:26 2,3 C 2,2 C 0,6 C 94 % 15 lf 993,0 hPa 0,0 l/m 0 min 0 min 0 W/m 22,5 km/h (4 Bft) 95,74 %
16.01.2018 21:28 2,4 C 2,2 C 0,6 C 94 % 15 lf 993,0 hPa 0,0 l/m 0 min 0 min 0 W/m 22,5 km/h (4 Bft) 93,48 %
16.01.2018 21:30 2,4 C 2,2 C 0,6 C 94 % 15 lf 993,0 hPa 0,0 l/m 0 min 0 min 0 W/m 18,0 km/h (3 Bft) 95,74 %
16.01.2018 21:32 2,4 C 2,2 C 0,6 C 94 % 15 lf 993,0 hPa 0,0 l/m 0 min 0 min 0 W/m 18,0 km/h (3 Bft) 95,74 %
16.01.2018 21:34 2,4 C 2,2 C 0,6 C 94 % 15 lf 993,0 hPa 0,0 l/m 0 min 0 min 0 W/m 20,3 km/h (4 Bft) 91,49 %
16.01.2018 21:36 2,4 C 2,2 C 0,6 C 94 % 15 lf 993,0 hPa 0,0 l/m 0 min 0 min 0 W/m 18,0 km/h (3 Bft) 95,74 %
16.01.2018 21:38 2,5 C 2,2 C 0,6 C 94 % 15 lf 993,1 hPa 0,0 l/m 0 min 0 min 0 W/m 22,5 km/h (4 Bft) 93,62 %
16.01.2018 21:40 2,5 C 2,2 C 0,6 C 94 % 15 lf 993,0 hPa 0,0 l/m 0 min 0 min 0 W/m 20,3 km/h (4 Bft) 95,65 %
16.01.2018 21:42 2,5 C 2,2 C 0,6 C 94 % 15 lf 993,0 hPa 0,0 l/m 0 min 0 min 0 W/m 15,8 km/h (3 Bft) 93,62 %
16.01.2018 21:44 2,6 C 2,2 C 0,6 C 93 % 15 lf 993,0 hPa 0,0 l/m 0 min 0 min 0 W/m 15,8 km/h (3 Bft) 93,62 %
16.01.2018 21:46 2,6 C 2,2 C 0,6 C 94 % 15 lf 993,0 hPa 0,0 l/m 0 min 0 min 0 W/m 22,5 km/h (4 Bft) 95,74 %
16.01.2018 21:48 2,6 C 2,2 C 0,6 C 94 % 15 lf 993,0 hPa 0,0 l/m 0 min 0 min 0 W/m 15,8 km/h (3 Bft) 95,74 %
16.01.2018 21:50 2,6 C 2,2 C 0,6 C 93 % 15 lf 992,9 hPa 0,0 l/m 0 min 0 min 0 W/m 13,5 km/h (3 Bft) 97,87 %
16.01.2018 21:52 2,6 C 2,2 C 0,6 C 93 % 15 lf 993,0 hPa 0,0 l/m 0 min 0 min 0 W/m 27,0 km/h (4 Bft) 93,48 %
16.01.2018 21:54 2,6 C 2,2 C 0,6 C 93 % 15 lf 992,9 hPa 0,0 l/m 0 min 0 min 0 W/m 15,8 km/h (3 Bft) 97,87 %
16.01.2018 21:56 2,6 C 2,2 C 0,6 C 93 % 15 lf 992,9 hPa 0,0 l/m 0 min 0 min 0 W/m 15,8 km/h (3 Bft) 93,62 %
16.01.2018 21:58 2,6 C 2,2 C 0,6 C 93 % 15 lf 992,9 hPa 0,0 l/m 0 min 0 min 0 W/m 15,8 km/h (3 Bft) 100,00 %
16.01.2018 22:00 2,7 C 2,2 C 0,6 C 93 % 15 lf 992,8 hPa 0,0 l/m 0 min 0 min 0 W/m 24,8 km/h (4 Bft) 100,00 %
16.01.2018 22:02 2,7 C 2,2 C 0,6 C 93 % 15 lf 992,8 hPa 0,0 l/m 0 min 0 min 0 W/m 18,0 km/h (3 Bft) 95,74 %
16.01.2018 22:04 2,6 C 2,2 C 0,6 C 93 % 15 lf 992,7 hPa 0,0 l/m 0 min 0 min 0 W/m 22,5 km/h (4 Bft) 97,83 %
16.01.2018 22:06 2,7 C 2,2 C 0,6 C 93 % 15 lf 992,8 hPa 0,0 l/m 0 min 0 min 0 W/m 15,8 km/h (3 Bft) 97,87 %
16.01.2018 22:08 2,7 C 2,2 C 0,6 C 93 % 15 lf 992,7 hPa 0,0 l/m 0 min 0 min 0 W/m 20,3 km/h (4 Bft) 97,87 %
16.01.2018 22:10 2,7 C 2,2 C 0,6 C 93 % 15 lf 992,7 hPa 0,0 l/m 0 min 0 min 0 W/m 15,8 km/h (3 Bft) 97,87 %
16.01.2018 22:12 2,6 C 2,2 C 0,6 C 93 % 15 lf 992,7 hPa 0,0 l/m 0 min 0 min 0 W/m 18,0 km/h (3 Bft) 93,62 %
16.01.2018 22:14 2,6 C 2,2 C 0,0 C 93 % 15 lf 992,7 hPa 0,0 l/m 0 min 0 min 0 W/m 18,0 km/h (3 Bft) 100,00 %
16.01.2018 22:16 2,6 C 2,2 C 0,0 C 93 % 15 lf 992,8 hPa 0,0 l/m 0 min 0 min 0 W/m 20,3 km/h (4 Bft) 100,00 %
16.01.2018 22:18 2,6 C 2,2 C 0,6 C 93 % 15 lf 992,6 hPa 0,0 l/m 0 min 0 min 0 W/m 31,5 km/h (5 Bft) 97,87 %
16.01.2018 22:20 2,6 C 2,2 C 0,6 C 93 % 15 lf 992,7 hPa 0,0 l/m 0 min 0 min 0 W/m 27,0 km/h (4 Bft) 95,74 %
16.01.2018 22:22 2,6 C 2,2 C 0,6 C 92 % 15 lf 992,6 hPa 0,0 l/m 0 min 0 min 0 W/m 13,5 km/h (3 Bft) 97,87 %
16.01.2018 22:24 2,6 C 2,2 C 0,6 C 93 % 15 lf 992,7 hPa 0,0 l/m 0 min 0 min 0 W/m 22,5 km/h (4 Bft) 97,87 %
16.01.2018 22:26 2,6 C 2,2 C 0,6 C 93 % 15 lf 992,6 hPa 0,0 l/m 0 min 0 min 0 W/m 22,5 km/h (4 Bft) 86,96 %
16.01.2018 22:28 2,6 C 2,2 C 0,6 C 93 % 15 lf 992,6 hPa 0,0 l/m 0 min 0 min 0 W/m 22,5 km/h (4 Bft) 95,74 %
16.01.2018 22:30 2,6 C 2,2 C 0,6 C 92 % 15 lf 992,6 hPa 0,0 l/m 0 min 0 min 0 W/m 18,0 km/h (3 Bft) 95,74 %
16.01.2018 22:32 2,6 C 2,2 C 0,6 C 92 % 15 lf 992,6 hPa 0,0 l/m 0 min 0 min 0 W/m 22,5 km/h (4 Bft) 93,62 %
16.01.2018 22:34 2,7 C 2,2 C 0,6 C 92 % 15 lf 992,5 hPa 0,0 l/m 0 min 0 min 0 W/m 24,8 km/h (4 Bft) 93,62 %
16.01.2018 22:36 2,7 C 2,2 C 0,6 C 92 % 15 lf 992,5 hPa 0,0 l/m 0 min 0 min 0 W/m 22,5 km/h (4 Bft) 95,74 %
16.01.2018 22:38 2,7 C 2,8 C 0,6 C 92 % 15 lf 992,5 hPa 0,0 l/m 0 min 0 min 0 W/m 22,5 km/h (4 Bft) 91,30 %
16.01.2018 22:40 2,7 C 2,8 C 0,6 C 92 % 15 lf 992,6 hPa 0,0 l/m 0 min 0 min 0 W/m 24,8 km/h (4 Bft) 93,62 %
16.01.2018 22:42 2,7 C 2,8 C 0,6 C 92 % 15 lf 992,6 hPa 0,0 l/m 0 min 0 min 0 W/m 18,0 km/h (3 Bft) 91,49 %
16.01.2018 22:44 2,7 C 2,8 C 0,6 C 92 % 15 lf 992,6 hPa 0,0 l/m 0 min 0 min 0 W/m 22,5 km/h (4 Bft) 95,74 %
16.01.2018 22:46 2,8 C 2,8 C 0,6 C 92 % 15 lf 992,6 hPa 0,0 l/m 0 min 0 min 0 W/m 24,8 km/h (4 Bft) 95,74 %
16.01.2018 22:48 2,8 C 2,8 C 0,6 C 92 % 15 lf 992,5 hPa 0,0 l/m 0 min 0 min 0 W/m 15,8 km/h (3 Bft) 95,74 %
16.01.2018 22:50 2,8 C 2,8 C 0,6 C 92 % 15 lf 992,6 hPa 0,0 l/m 0 min 0 min 0 W/m 22,5 km/h (4 Bft) 97,83 %
16.01.2018 22:52 2,8 C 2,8 C 0,6 C 92 % 15 lf 992,5 hPa 0,0 l/m 0 min 0 min 0 W/m 20,3 km/h (4 Bft) 97,87 %
16.01.2018 22:54 2,8 C 2,8 C 0,6 C 92 % 15 lf 992,5 hPa 0,0 l/m 0 min 0 min 0 W/m 18,0 km/h (3 Bft) 95,74 %
16.01.2018 22:56 2,8 C 2,8 C 0,6 C 92 % 15 lf 992,5 hPa 0,0 l/m 0 min 0 min 0 W/m 24,8 km/h (4 Bft) 97,87 %
16.01.2018 22:58 2,9 C 2,8 C 0,6 C 92 % 15 lf 992,5 hPa 0,0 l/m 0 min 0 min 0 W/m 40,6 km/h (6 Bft) 95,74 %
16.01.2018 23:00 2,9 C 2,8 C 1,1 C 92 % 15 lf 992,4 hPa 0,2 l/m 0 min 0 min 0 W/m 29,3 km/h (5 Bft) 97,87 %
16.01.2018 23:02 2,9 C 2,8 C 1,1 C 92 % 15 lf 992,4 hPa 0,0 l/m 0 min 0 min 0 W/m 27,0 km/h (4 Bft) 93,48 %
16.01.2018 23:04 3,0 C 2,8 C 1,1 C 92 % 15 lf 992,4 hPa 0,0 l/m 0 min 0 min 0 W/m 38,3 km/h (5 Bft) 97,87 %
16.01.2018 23:06 3,0 C 2,8 C 1,1 C 92 % 15 lf 992,3 hPa 0,0 l/m 0 min 0 min 0 W/m 27,0 km/h (4 Bft) 95,74 %
16.01.2018 23:08 3,1 C 2,8 C 1,1 C 92 % 15 lf 992,4 hPa 0,0 l/m 0 min 0 min 0 W/m 27,0 km/h (4 Bft) 97,87 %
16.01.2018 23:10 3,1 C 2,8 C 1,1 C 92 % 15 lf 992,4 hPa 0,0 l/m 0 min 0 min 0 W/m 31,5 km/h (5 Bft) 97,87 %
16.01.2018 23:12 3,1 C 2,8 C 1,1 C 92 % 15 lf 992,4 hPa 0,0 l/m 0 min 0 min 0 W/m 24,8 km/h (4 Bft) 100,00 %
16.01.2018 23:14 3,1 C 2,8 C 1,1 C 92 % 15 lf 992,3 hPa 0,0 l/m 0 min 0 min 0 W/m 29,3 km/h (5 Bft) 97,83 %
16.01.2018 23:16 3,2 C 3,3 C 1,1 C 92 % 15 lf 992,3 hPa 0,0 l/m 0 min 0 min 0 W/m 36,0 km/h (5 Bft) 100,00 %
16.01.2018 23:18 3,2 C 3,3 C 1,1 C 92 % 15 lf 992,3 hPa 0,0 l/m 0 min 0 min 0 W/m 22,5 km/h (4 Bft) 97,87 %
16.01.2018 23:20 3,2 C 2,8 C 1,1 C 92 % 15 lf 992,3 hPa 0,0 l/m 0 min 0 min 0 W/m 22,5 km/h (4 Bft) 97,87 %
16.01.2018 23:22 3,2 C 2,8 C 1,1 C 92 % 15 lf 992,2 hPa 0,0 l/m 0 min 0 min 0 W/m 18,0 km/h (3 Bft) 100,00 %
16.01.2018 23:24 3,2 C 2,8 C 1,1 C 92 % 15 lf 992,2 hPa 0,0 l/m 0 min 0 min 0 W/m 22,5 km/h (4 Bft) 100,00 %
16.01.2018 23:26 3,2 C 3,3 C 1,1 C 92 % 15 lf 992,3 hPa 0,0 l/m 0 min 0 min 0 W/m 27,0 km/h (4 Bft) 100,00 %
16.01.2018 23:28 3,3 C 3,3 C 1,1 C 92 % 15 lf 992,3 hPa 0,0 l/m 0 min 0 min 0 W/m 31,5 km/h (5 Bft) 97,87 %
16.01.2018 23:30 3,3 C 3,3 C 1,1 C 92 % 15 lf 992,3 hPa 0,0 l/m 0 min 0 min 0 W/m 22,5 km/h (4 Bft) 100,00 %
16.01.2018 23:32 3,3 C 3,3 C 1,1 C 92 % 15 lf 992,3 hPa 0,0 l/m 0 min 0 min 0 W/m 29,3 km/h (5 Bft) 100,00 %
16.01.2018 23:34 3,3 C 3,3 C 1,1 C 91 % 14 lf 992,3 hPa 0,0 l/m 0 min 0 min 0 W/m 31,5 km/h (5 Bft) 100,00 %
16.01.2018 23:36 3,3 C 3,3 C 1,1 C 91 % 14 lf 992,2 hPa 0,0 l/m 0 min 0 min 0 W/m 31,5 km/h (5 Bft) 97,87 %
16.01.2018 23:38 3,3 C 3,3 C 1,1 C 91 % 13 lf 992,2 hPa 0,0 l/m 0 min 0 min 0 W/m 20,3 km/h (4 Bft) 100,00 %
16.01.2018 23:40 3,3 C 3,3 C 1,1 C 91 % 12 lf 992,1 hPa 0,0 l/m 0 min 0 min 0 W/m 22,5 km/h (4 Bft) 100,00 %
16.01.2018 23:42 3,4 C 3,3 C 1,7 C 91 % 10 lf 992,2 hPa 0,0 l/m 0 min 0 min 0 W/m 22,5 km/h (4 Bft) 95,74 %
16.01.2018 23:44 3,4 C 3,3 C 1,7 C 91 % 9 lf 992,2 hPa 0,0 l/m 0 min 0 min 0 W/m 22,5 km/h (4 Bft) 95,74 %
16.01.2018 23:46 3,4 C 3,3 C 1,7 C 92 % 7 lf 992,2 hPa 0,0 l/m 0 min 0 min 0 W/m 29,3 km/h (5 Bft) 100,00 %
16.01.2018 23:48 3,4 C 3,3 C 1,7 C 92 % 4 lf 992,1 hPa 0,0 l/m 0 min 0 min 0 W/m 22,5 km/h (4 Bft) 97,83 %
16.01.2018 23:50 3,4 C 3,3 C 1,7 C 92 % 3 lf 992,1 hPa 0,0 l/m 0 min 0 min 0 W/m 29,3 km/h (5 Bft) 100,00 %
16.01.2018 23:52 3,5 C 3,3 C 1,7 C 91 % 3 lf 992,1 hPa 0,0 l/m 0 min 0 min 0 W/m 24,8 km/h (4 Bft) 97,87 %
16.01.2018 23:54 3,5 C 3,3 C 1,7 C 91 % 2 lf 992,1 hPa 0,0 l/m 0 min 0 min 0 W/m 24,8 km/h (4 Bft) 100,00 %
16.01.2018 23:56 3,5 C 3,3 C 1,7 C 91 % 1 lf 992,2 hPa 0,0 l/m 0 min 0 min 0 W/m 29,3 km/h (5 Bft) 100,00 %
16.01.2018 23:58 3,5 C 3,3 C 1,7 C 91 % 0 lf 992,2 hPa 0,0 l/m 0 min 0 min 0 W/m 24,8 km/h (4 Bft) 97,87 %
_ Min-Zeit 18:44 18:16 10:22 10:12 02:36 08:36 - - - - 15:02 04:05
Minimum _ 1,7 C 0,6 C -0,6 C 87 % 0 lf 990,2 hPa - - - - 6,8 km/h (2 Bft) 35,09 %
_ Max-Zeit 09:52 14:36 09:44 13:30 00:00 17:12 10:20 09:40 05:38 14:36 10:24 00:16
Maximum _ 6,8 C 9,4 C 6,1 C 97 % 15 lf 994,8 hPa 0,4 l/m 2 min 3 min 249 W/m 63,1 km/h
NW (8 Bft)
100,00 %
Durchschnitt _ 4,3 C 3,9 C 2,3 C 93 % 11 lf 992,5 hPa #12,4 l/m #54 min. #6:27 h 53 W/m 26,2 km/h (4 Bft) 96,20 %
© 2018 W. Hausmann